| time (UTC) | temp F | wind direction | speed MPH | gust MPH | rain 1hr in | rain 24hr in | rain mn in | humidity % | barometer mb |
| 20260507195517 | 71 | 345 | 8.0 | 13.0 | 0.00 | 1.21 | 0.31 | 57 | 1013.3 |
| 20260507195425 | 70 | 338 | 8.0 | 13.0 | 0.00 | 1.21 | 0.31 | 58 | 1013.3 |
| 20260507195311 | 70 | 321 | 6.0 | 13.0 | 0.00 | 1.21 | 0.31 | 58 | 1013.3 |
| 20260507195219 | 70 | 292 | 4.0 | 11.0 | 0.00 | 1.21 | 0.31 | 58 | 1013.4 |
| 20260507195129 | 70 | 322 | 6.0 | 13.0 | 0.00 | 1.21 | 0.31 | 58 | 1013.4 |
| 20260507195100 | 70 | 344 | 7.0 | 13.0 | 0.00 | 1.21 | 0.31 | 58 | 1013.4 |
| 20260507194814 | 70 | 330 | 8.0 | 13.0 | 0.00 | 1.21 | 0.31 | 56 | 1013.4 |
| 20260507194722 | 70 | 340 | 8.0 | 13.0 | 0.00 | 1.21 | 0.31 | 54 | 1013.4 |
| 20260507194633 | 71 | 336 | 8.0 | 13.0 | 0.00 | 1.21 | 0.31 | 55 | 1013.4 |
| 20260507194519 | 71 | 302 | 8.0 | 13.0 | 0.00 | 1.21 | 0.31 | 57 | 1013.3 |
| 20260507194427 | 71 | 315 | 9.0 | 13.0 | 0.00 | 1.21 | 0.31 | 58 | 1013.3 |
| 20260507194333 | 71 | 337 | 8.0 | 13.0 | 0.00 | 1.30 | 0.31 | 57 | 1013.4 |
| 20260507194220 | 71 | 348 | 9.0 | 12.0 | 0.00 | 1.30 | 0.31 | 56 | 1013.4 |
| 20260507194128 | 71 | 351 | 8.0 | 12.0 | 0.00 | 1.30 | 0.31 | 56 | 1013.4 |
| 20260507194020 | 71 | 355 | 5.0 | 12.0 | 0.00 | 1.30 | 0.31 | 58 | 1013.4 |
| 20260507193928 | 71 | 333 | 5.0 | 14.0 | 0.00 | 1.30 | 0.31 | 58 | 1013.4 |
| 20260507193815 | 71 | 332 | 6.0 | 14.0 | 0.00 | 1.30 | 0.31 | 56 | 1013.4 |
| 20260507193724 | 71 | 320 | 6.0 | 14.0 | 0.00 | 1.30 | 0.31 | 58 | 1013.4 |
| 20260507193651 | 71 | 355 | 7.0 | 14.0 | 0.00 | 1.30 | 0.31 | 58 | 1013.5 |
| 20260507193624 | 71 | 345 | 8.0 | 14.0 | 0.00 | 1.30 | 0.31 | 55 | 1013.5 |
| 20260507193337 | 71 | 315 | 9.0 | 14.0 | 0.00 | 1.30 | 0.31 | 57 | 1013.4 |
| 20260507193224 | 71 | 317 | 8.0 | 14.0 | 0.00 | 1.30 | 0.31 | 59 | 1013.4 |
| 20260507193111 | 71 | 355 | 7.0 | 14.0 | 0.00 | 1.30 | 0.31 | 57 | 1013.4 |
| 20260507193019 | 71 | 348 | 9.0 | 14.0 | 0.00 | 1.30 | 0.31 | 57 | 1013.4 |
| 20260507192926 | 71 | 334 | 11.0 | 14.0 | 0.00 | 1.30 | 0.31 | 57 | 1013.4 |
| 20260507192818 | 71 | 335 | 9.0 | 14.0 | 0.00 | 1.30 | 0.31 | 55 | 1013.4 |
| 20260507192727 | 71 | 309 | 9.0 | 14.0 | 0.00 | 1.30 | 0.31 | 55 | 1013.4 |
| 20260507192615 | 71 | 311 | 9.0 | 14.0 | 0.00 | 1.30 | 0.31 | 55 | 1013.3 |
| 20260507192523 | 71 | 328 | 9.0 | 14.0 | 0.00 | 1.30 | 0.31 | 55 | 1013.3 |
| 20260507192450 | 71 | 330 | 7.0 | 12.0 | 0.00 | 1.30 | 0.31 | 56 | 1013.3 |
| 20260507192337 | 71 | 329 | 6.0 | 12.0 | 0.00 | 1.30 | 0.31 | 56 | 1013.2 |
| 20260507192226 | 71 | 325 | 5.0 | 12.0 | 0.00 | 1.30 | 0.31 | 56 | 1013.2 |
| 20260507192155 | 71 | 348 | 5.0 | 12.0 | 0.00 | 1.30 | 0.31 | 56 | 1013.3 |
| 20260507192125 | 71 | 355 | 6.0 | 12.0 | 0.00 | 1.30 | 0.31 | 57 | 1013.2 |
| 20260507191818 | 71 | 360 | 7.0 | 12.0 | 0.00 | 1.30 | 0.31 | 57 | 1013.4 |
| 20260507191725 | 71 | 321 | 7.0 | 12.0 | 0.00 | 1.30 | 0.31 | 57 | 1013.4 |
| 20260507191617 | 71 | 341 | 7.0 | 12.0 | 0.00 | 1.30 | 0.31 | 59 | 1013.2 |
| 20260507191525 | 71 | 332 | 8.0 | 12.0 | 0.00 | 1.30 | 0.31 | 57 | 1013.2 |
| 20260507191412 | 71 | 355 | 8.0 | 12.0 | 0.00 | 1.30 | 0.31 | 55 | 1013.3 |
| 20260507191340 | 71 | 321 | 9.0 | 12.0 | 0.00 | 1.30 | 0.31 | 56 | 1013.3 |
| 20260507191246 | 71 | 313 | 8.0 | 12.0 | 0.00 | 1.30 | 0.31 | 56 | 1013.3 |
| 20260507191111 | 71 | 334 | 7.0 | 12.0 | 0.00 | 1.30 | 0.31 | 57 | 1013.3 |
| 20260507191039 | 71 | 265 | 5.0 | 12.0 | 0.00 | 1.30 | 0.31 | 57 | 1013.3 |
| 20260507190928 | 71 | 319 | 5.0 | 12.0 | 0.00 | 1.30 | 0.31 | 57 | 1013.3 |
| 20260507190816 | 70 | 306 | 6.0 | 9.0 | 0.00 | 1.30 | 0.31 | 58 | 1013.3 |
| 20260507190744 | 70 | 16 | 6.0 | 9.0 | 0.00 | 1.30 | 0.31 | 59 | 1013.3 |
| 20260507190611 | 70 | 355 | 5.0 | 10.0 | 0.00 | 1.30 | 0.31 | 60 | 1013.2 |
| 20260507190546 | 70 | 23 | 5.0 | 10.0 | 0.00 | 1.30 | 0.31 | 60 | 1013.2 |
| 20260507190319 | 70 | 290 | 4.0 | 11.0 | 0.00 | 1.30 | 0.31 | 57 | 1013.3 |
| 20260507190227 | 70 | 351 | 3.0 | 11.0 | 0.00 | 1.30 | 0.31 | 58 | 1013.3 |
| 20260507190113 | 70 | 57 | 2.0 | 11.0 | 0.00 | 1.30 | 0.31 | 58 | 1013.4 |
| 20260507190021 | 70 | 346 | 3.0 | 11.0 | 0.00 | 1.30 | 0.31 | 58 | 1013.4 |
| 20260507185930 | 70 | 24 | 4.0 | 11.0 | 0.00 | 1.30 | 0.31 | 59 | 1013.3 |
| 20260507185823 | 70 | 339 | 6.0 | 11.0 | 0.00 | 1.30 | 0.31 | 59 | 1013.3 |
| 20260507185729 | 70 | 306 | 8.0 | 11.0 | 0.00 | 1.30 | 0.31 | 59 | 1013.3 |
| 20260507185618 | 70 | 355 | 7.0 | 11.0 | 0.00 | 1.30 | 0.31 | 59 | 1013.3 |
| 20260507185525 | 70 | 330 | 7.0 | 10.0 | 0.00 | 1.30 | 0.31 | 57 | 1013.3 |
| 20260507185411 | 70 | 360 | 6.0 | 10.0 | 0.00 | 1.30 | 0.31 | 57 | 1013.3 |
| 20260507185322 | 70 | 36 | 5.0 | 12.0 | 0.00 | 1.30 | 0.31 | 59 | 1013.3 |
| 20260507185229 | 70 | 46 | 3.0 | 12.0 | 0.00 | 1.30 | 0.31 | 59 | 1013.3 |
| 20260507185118 | 70 | 344 | 3.0 | 12.0 | 0.00 | 1.30 | 0.31 | 59 | 1013.4 |
| 20260507185047 | 70 | 342 | 3.0 | 12.0 | 0.00 | 1.30 | 0.31 | 58 | 1013.4 |
| 20260507184822 | 70 | 304 | 5.0 | 12.0 | 0.00 | 1.30 | 0.31 | 58 | 1013.4 |
| 20260507184713 | 70 | 321 | 6.0 | 12.0 | 0.00 | 1.30 | 0.31 | 58 | 1013.5 |
| 20260507184640 | 70 | 298 | 6.0 | 12.0 | 0.00 | 1.30 | 0.31 | 58 | 1013.4 |
| 20260507184547 | 70 | 327 | 7.0 | 14.0 | 0.00 | 1.30 | 0.31 | 57 | 1013.4 |
| 20260507184413 | 70 | 192 | 7.0 | 15.0 | 0.00 | 1.50 | 0.31 | 58 | 1013.4 |
| 20260507184341 | 70 | 322 | 7.0 | 17.0 | 0.00 | 1.50 | 0.31 | 57 | 1013.4 |
| 20260507184227 | 70 | 300 | 5.0 | 17.0 | 0.00 | 1.50 | 0.31 | 57 | 1013.4 |
| 20260507184119 | 70 | 273 | 5.0 | 17.0 | 0.00 | 1.50 | 0.31 | 57 | 1013.4 |
| 20260507184027 | 70 | 295 | 7.0 | 17.0 | 0.00 | 1.50 | 0.31 | 59 | 1013.4 |
| 20260507183913 | 70 | 339 | 9.0 | 17.0 | 0.00 | 1.50 | 0.31 | 59 | 1013.4 |
| 20260507183821 | 70 | 17 | 9.0 | 17.0 | 0.00 | 1.50 | 0.31 | 59 | 1013.4 |
| 20260507183730 | 70 | 338 | 10.0 | 17.0 | 0.00 | 1.50 | 0.31 | 59 | 1013.4 |
| 20260507183617 | 70 | 319 | 9.0 | 17.0 | 0.00 | 1.50 | 0.31 | 59 | 1013.3 |
| 20260507183551 | 70 | 329 | 8.0 | 17.0 | 0.00 | 1.50 | 0.31 | 59 | 1013.3 |
| 20260507183324 | 69 | 330 | 5.0 | 12.0 | 0.00 | 1.50 | 0.31 | 58 | 1013.3 |
| 20260507183210 | 69 | 57 | 6.0 | 12.0 | 0.00 | 1.50 | 0.31 | 59 | 1013.4 |
| 20260507183118 | 69 | 324 | 7.0 | 12.0 | 0.00 | 1.50 | 0.31 | 60 | 1013.3 |
| 20260507183030 | 69 | 325 | 6.0 | 12.0 | 0.00 | 1.50 | 0.31 | 60 | 1013.3 |
| 20260507182918 | 69 | 336 | 7.0 | 14.0 | 0.00 | 1.50 | 0.31 | 60 | 1013.2 |
| 20260507182825 | 69 | 325 | 6.0 | 14.0 | 0.00 | 1.50 | 0.31 | 61 | 1013.2 |
| 20260507182711 | 69 | 5 | 8.0 | 14.0 | 0.00 | 1.50 | 0.31 | 61 | 1013.4 |
| 20260507182639 | 69 | 344 | 7.0 | 14.0 | 0.00 | 1.50 | 0.31 | 61 | 1013.4 |
| 20260507182525 | 69 | 336 | 5.0 | 14.0 | 0.00 | 1.50 | 0.31 | 60 | 1013.4 |
| 20260507182417 | 69 | 308 | 5.0 | 14.0 | 0.00 | 1.50 | 0.31 | 61 | 1013.4 |
| 20260507182325 | 69 | 15 | 6.0 | 14.0 | 0.00 | 1.50 | 0.31 | 60 | 1013.4 |
| 20260507182212 | 69 | 17 | 7.0 | 14.0 | 0.00 | 1.50 | 0.31 | 60 | 1013.5 |
| 20260507182121 | 69 | 355 | 8.0 | 14.0 | 0.00 | 1.50 | 0.31 | 62 | 1013.5 |
| 20260507182055 | 69 | 20 | 9.0 | 14.0 | 0.00 | 1.50 | 0.31 | 61 | 1013.6 |
| 20260507181829 | 69 | 5 | 8.0 | 14.0 | 0.00 | 1.50 | 0.31 | 63 | 1013.7 |
| 20260507181716 | 68 | 20 | 8.0 | 14.0 | 0.00 | 1.50 | 0.31 | 62 | 1013.6 |
| 20260507181625 | 68 | 23 | 9.0 | 14.0 | 0.00 | 1.50 | 0.31 | 62 | 1013.6 |
| 20260507181512 | 68 | 346 | 8.0 | 14.0 | 0.00 | 1.50 | 0.31 | 61 | 1013.6 |
| 20260507181418 | 68 | 26 | 8.0 | 14.0 | 0.00 | 1.50 | 0.31 | 61 | 1013.6 |
| 20260507181311 | 68 | 296 | 6.0 | 14.0 | 0.00 | 1.50 | 0.31 | 62 | 1013.6 |
| 20260507181219 | 68 | 315 | 6.0 | 14.0 | 0.00 | 1.50 | 0.31 | 61 | 1013.6 |
| 20260507181127 | 68 | 316 | 7.0 | 14.0 | 0.00 | 1.50 | 0.31 | 59 | 1013.6 |
| 20260507181033 | 68 | 317 | 9.0 | 14.0 | 0.00 | 1.50 | 0.31 | 61 | 1013.8 |
| 20260507180919 | 68 | 319 | 8.0 | 14.0 | 0.00 | 1.50 | 0.31 | 60 | 1013.8 |
| 20260507180845 | 68 | 313 | 7.0 | 14.0 | 0.00 | 1.50 | 0.31 | 60 | 1013.8 |
| 20260507180714 | 68 | 311 | 8.0 | 14.0 | 0.00 | 1.50 | 0.31 | 61 | 1013.9 |
| 20260507180621 | 68 | 299 | 9.0 | 14.0 | 0.00 | 1.50 | 0.31 | 62 | 1013.9 |
| 20260507180552 | 68 | 304 | 8.0 | 14.0 | 0.00 | 1.50 | 0.31 | 62 | 1013.9 |
| 20260507180326 | 68 | 350 | 6.0 | 13.0 | 0.00 | 1.50 | 0.31 | 62 | 1014.0 |
| 20260507180218 | 68 | 344 | 5.0 | 12.0 | 0.00 | 1.50 | 0.31 | 63 | 1014.0 |
| 20260507180124 | 68 | 355 | 6.0 | 12.0 | 0.00 | 1.50 | 0.31 | 63 | 1014.0 |
| 20260507180011 | 68 | 355 | 7.0 | 12.0 | 0.00 | 1.50 | 0.31 | 61 | 1014.1 |
| 20260507175919 | 68 | 345 | 8.0 | 12.0 | 0.00 | 1.50 | 0.31 | 62 | 1014.1 |
| 20260507175827 | 68 | 314 | 7.0 | 12.0 | 0.00 | 1.50 | 0.31 | 62 | 1014.1 |
| 20260507175714 | 67 | 328 | 8.0 | 12.0 | 0.00 | 1.50 | 0.31 | 63 | 1014.1 |
| 20260507175625 | 67 | 11 | 7.0 | 13.0 | 0.00 | 1.50 | 0.31 | 63 | 1014.1 |
| 20260507175512 | 67 | 5 | 5.0 | 13.0 | 0.00 | 1.50 | 0.31 | 62 | 1014.1 |
| 20260507175439 | 67 | 39 | 5.0 | 13.0 | 0.00 | 1.50 | 0.31 | 63 | 1014.1 |
| 20260507175326 | 67 | 25 | 7.0 | 13.0 | 0.00 | 1.50 | 0.31 | 61 | 1014.1 |
| 20260507175232 | 67 | 355 | 6.0 | 13.0 | 0.00 | 1.50 | 0.31 | 62 | 1014.2 |
| 20260507175118 | 67 | 34 | 7.0 | 13.0 | 0.00 | 1.50 | 0.31 | 63 | 1014.2 |
| 20260507175053 | 67 | 16 | 7.0 | 13.0 | 0.00 | 1.50 | 0.31 | 61 | 1014.2 |
| 20260507174827 | 67 | 5 | 8.0 | 13.0 | 0.00 | 1.50 | 0.31 | 60 | 1014.2 |
| 20260507174715 | 67 | 321 | 7.0 | 15.0 | 0.00 | 1.50 | 0.31 | 60 | 1014.2 |
| 20260507174622 | 67 | 319 | 6.0 | 15.0 | 0.00 | 1.50 | 0.31 | 60 | 1014.2 |
| 20260507174514 | 67 | 340 | 7.0 | 15.0 | 0.00 | 1.50 | 0.31 | 62 | 1014.2 |
| 20260507174441 | 67 | 344 | 8.0 | 15.0 | 0.00 | 1.50 | 0.31 | 62 | 1014.3 |
| 20260507174328 | 67 | 331 | 6.0 | 15.0 | 0.00 | 1.99 | 0.31 | 62 | 1014.3 |
| 20260507174216 | 67 | 348 | 6.0 | 15.0 | 0.00 | 1.99 | 0.31 | 60 | 1014.3 |
| 20260507174124 | 67 | 317 | 7.0 | 15.0 | 0.00 | 1.99 | 0.31 | 61 | 1014.3 |
| 20260507174030 | 68 | 323 | 8.0 | 15.0 | 0.00 | 1.99 | 0.31 | 61 | 1014.4 |
| 20260507173922 | 68 | 329 | 9.0 | 15.0 | 0.00 | 1.99 | 0.31 | 62 | 1014.4 |
| 20260507173830 | 67 | 360 | 7.0 | 15.0 | 0.00 | 1.99 | 0.31 | 62 | 1014.4 |
| 20260507173718 | 67 | 355 | 6.0 | 12.0 | 0.00 | 1.99 | 0.31 | 62 | 1014.4 |
| 20260507173625 | 67 | 360 | 7.0 | 12.0 | 0.00 | 1.99 | 0.31 | 63 | 1014.4 |
| 20260507173555 | 67 | 355 | 7.0 | 12.0 | 0.00 | 1.99 | 0.31 | 63 | 1014.4 |
| 20260507173312 | 67 | 360 | 7.0 | 12.0 | 0.00 | 1.99 | 0.31 | 61 | 1014.4 |
| 20260507173219 | 67 | 312 | 7.0 | 12.0 | 0.00 | 1.99 | 0.31 | 62 | 1014.4 |
| 20260507173127 | 67 | 306 | 6.0 | 12.0 | 0.00 | 1.99 | 0.31 | 63 | 1014.4 |
| 20260507173015 | 67 | 360 | 5.0 | 12.0 | 0.00 | 1.99 | 0.31 | 61 | 1014.4 |
| 20260507172923 | 67 | 9 | 5.0 | 12.0 | 0.00 | 1.99 | 0.31 | 61 | 1014.4 |
| 20260507172814 | 67 | 329 | 5.0 | 12.0 | 0.00 | 1.99 | 0.31 | 60 | 1014.4 |
| 20260507172742 | 67 | 360 | 5.0 | 12.0 | 0.00 | 1.99 | 0.31 | 59 | 1014.4 |
| 20260507172629 | 67 | 305 | 5.0 | 12.0 | 0.00 | 1.99 | 0.31 | 59 | 1014.5 |
| 20260507172515 | 67 | 325 | 6.0 | 12.0 | 0.00 | 1.99 | 0.31 | 63 | 1014.6 |
| 20260507172443 | 67 | 340 | 7.0 | 12.0 | 0.00 | 1.99 | 0.31 | 63 | 1014.6 |
| 20260507172350 | 67 | 23 | 7.0 | 12.0 | 0.00 | 1.99 | 0.31 | 63 | 1014.6 |
| 20260507172216 | 67 | 355 | 6.0 | 11.0 | 0.00 | 1.99 | 0.31 | 62 | 1014.5 |
| 20260507172127 | 67 | 336 | 6.0 | 11.0 | 0.00 | 1.99 | 0.31 | 62 | 1014.5 |
| 20260507172057 | 67 | 337 | 7.0 | 11.0 | 0.00 | 1.99 | 0.31 | 62 | 1014.6 |
| 20260507171830 | 67 | 15 | 7.0 | 10.0 | 0.00 | 1.99 | 0.31 | 63 | 1014.4 |
| 20260507171717 | 67 | 342 | 8.0 | 10.0 | 0.00 | 1.99 | 0.31 | 64 | 1014.5 |
| 20260507171628 | 67 | 351 | 6.0 | 11.0 | 0.00 | 1.99 | 0.31 | 64 | 1014.5 |
| 20260507171515 | 67 | 19 | 6.0 | 11.0 | 0.00 | 1.99 | 0.31 | 63 | 1014.5 |
| 20260507171443 | 67 | 17 | 6.0 | 11.0 | 0.00 | 1.99 | 0.31 | 63 | 1014.5 |
| 20260507171329 | 67 | 349 | 6.0 | 11.0 | 0.00 | 1.99 | 0.31 | 63 | 1014.5 |
| 20260507171217 | 67 | 5 | 5.0 | 11.0 | 0.00 | 1.99 | 0.31 | 62 | 1014.5 |
| 20260507171125 | 66 | 21 | 5.0 | 11.0 | 0.00 | 1.99 | 0.31 | 62 | 1014.5 |
| 20260507171018 | 66 | 319 | 6.0 | 11.0 | 0.00 | 1.99 | 0.31 | 64 | 1014.6 |
| 20260507170924 | 66 | 40 | 7.0 | 12.0 | 0.00 | 1.99 | 0.31 | 64 | 1014.6 |
| 20260507170811 | 66 | 324 | 7.0 | 12.0 | 0.00 | 1.99 | 0.31 | 63 | 1014.5 |
| 20260507170718 | 66 | 18 | 6.0 | 12.0 | 0.00 | 1.99 | 0.31 | 63 | 1014.5 |
| 20260507170646 | 66 | 33 | 6.0 | 14.0 | 0.00 | 1.99 | 0.31 | 64 | 1014.5 |
| 20260507170559 | 66 | 23 | 7.0 | 14.0 | 0.00 | 1.99 | 0.31 | 63 | 1014.5 |
| 20260507170313 | 66 | 332 | 7.0 | 14.0 | 0.00 | 1.99 | 0.31 | 66 | 1014.4 |
| 20260507170220 | 66 | 340 | 7.0 | 14.0 | 0.00 | 1.99 | 0.31 | 66 | 1014.4 |
| 20260507170126 | 65 | 329 | 7.0 | 14.0 | 0.00 | 1.99 | 0.31 | 66 | 1014.4 |
| 20260507170013 | 65 | 5 | 9.0 | 16.0 | 0.00 | 1.99 | 0.31 | 64 | 1014.4 |
| 20260507165919 | 65 | 24 | 9.0 | 16.0 | 0.00 | 1.99 | 0.31 | 61 | 1014.5 |
| 20260507165811 | 66 | 338 | 9.0 | 16.0 | 0.00 | 1.99 | 0.31 | 61 | 1014.5 |
| 20260507165718 | 66 | 344 | 9.0 | 16.0 | 0.00 | 1.99 | 0.31 | 62 | 1014.6 |
| 20260507165627 | 66 | 345 | 10.0 | 16.0 | 0.00 | 1.99 | 0.31 | 64 | 1014.6 |
| 20260507165515 | 66 | 325 | 9.0 | 16.0 | 0.00 | 1.99 | 0.31 | 64 | 1014.7 |
| 20260507165421 | 66 | 341 | 10.0 | 16.0 | 0.00 | 1.99 | 0.31 | 65 | 1014.7 |
| 20260507165348 | 66 | 323 | 10.0 | 16.0 | 0.00 | 1.99 | 0.31 | 64 | 1014.7 |
| 20260507165218 | 66 | 360 | 10.0 | 16.0 | 0.00 | 1.99 | 0.31 | 64 | 1014.6 |
| 20260507165125 | 65 | 336 | 9.0 | 15.0 | 0.00 | 1.99 | 0.31 | 64 | 1014.6 |
| 20260507165055 | 65 | 323 | 9.0 | 13.0 | 0.00 | 1.99 | 0.31 | 64 | 1014.6 |
| 20260507164848 | 65 | 9 | 8.0 | 13.0 | 0.00 | 1.99 | 0.31 | 64 | 1014.6 |
| 20260507164715 | 65 | 342 | 6.0 | 13.0 | 0.00 | 1.99 | 0.31 | 66 | 1014.6 |
| 20260507164626 | 65 | 336 | 4.0 | 13.0 | 0.00 | 1.99 | 0.31 | 65 | 1014.6 |
| 20260507164535 | 65 | 25 | 5.0 | 13.0 | 0.00 | 1.99 | 0.31 | 65 | 1014.6 |
| 20260507164420 | 65 | 5 | 8.0 | 14.0 | 0.00 | 1.99 | 0.31 | 63 | 1014.7 |
| 20260507164326 | 65 | 5 | 9.0 | 14.0 | 0.00 | 1.99 | 0.31 | 65 | 1014.7 |
| 20260507164234 | 65 | 355 | 8.0 | 14.0 | 0.00 | 1.99 | 0.31 | 66 | 1014.8 |
| 20260507164121 | 65 | 5 | 7.0 | 15.0 | 0.00 | 1.99 | 0.31 | 65 | 1014.8 |
| 20260507164011 | 65 | 346 | 7.0 | 16.0 | 0.00 | 1.99 | 0.31 | 64 | 1014.7 |
| 20260507163919 | 65 | 355 | 8.0 | 16.0 | 0.00 | 1.99 | 0.31 | 65 | 1014.7 |
| 20260507163846 | 65 | 325 | 9.0 | 16.0 | 0.00 | 1.99 | 0.31 | 65 | 1014.7 |
| 20260507163733 | 65 | 5 | 9.0 | 16.0 | 0.00 | 1.99 | 0.31 | 65 | 1014.7 |
| 20260507163641 | 65 | 38 | 9.0 | 16.0 | 0.00 | 1.99 | 0.31 | 65 | 1014.8 |
| 20260507163551 | 65 | 17 | 10.0 | 16.0 | 0.00 | 1.99 | 0.31 | 65 | 1014.8 |
| 20260507163350 | 65 | 331 | 11.0 | 16.0 | 0.00 | 1.99 | 0.31 | 63 | 1014.8 |
| 20260507163218 | 65 | 306 | 10.0 | 16.0 | 0.00 | 1.99 | 0.31 | 66 | 1014.8 |
| 20260507163124 | 65 | 320 | 8.0 | 13.0 | 0.00 | 1.99 | 0.31 | 67 | 1014.8 |
| 20260507163012 | 65 | 5 | 6.0 | 15.0 | 0.00 | 1.99 | 0.31 | 66 | 1014.8 |
| 20260507162940 | 65 | 22 | 6.0 | 15.0 | 0.00 | 1.99 | 0.31 | 67 | 1014.8 |
| 20260507162827 | 65 | 27 | 6.0 | 15.0 | 0.00 | 1.99 | 0.31 | 66 | 1014.8 |
| 20260507162719 | 65 | 31 | 7.0 | 15.0 | 0.00 | 1.99 | 0.31 | 67 | 1014.9 |
| 20260507162627 | 65 | 12 | 7.0 | 15.0 | 0.00 | 1.99 | 0.31 | 67 | 1014.9 |
| 20260507162515 | 64 | 355 | 10.0 | 15.0 | 0.00 | 1.99 | 0.31 | 67 | 1014.8 |
| 20260507162422 | 64 | 329 | 9.0 | 15.0 | 0.00 | 1.99 | 0.31 | 66 | 1014.8 |
| 20260507162329 | 64 | 360 | 9.0 | 15.0 | 0.00 | 1.99 | 0.31 | 65 | 1014.8 |
| 20260507162220 | 64 | 351 | 9.0 | 15.0 | 0.00 | 1.99 | 0.31 | 65 | 1014.8 |
| 20260507162147 | 64 | 351 | 9.0 | 15.0 | 0.00 | 1.99 | 0.31 | 65 | 1014.8 |
| 20260507162118 | 64 | 351 | 9.0 | 15.0 | 0.00 | 1.99 | 0.31 | 65 | 1014.7 |
| 20260507161810 | 64 | 344 | 9.0 | 15.0 | 0.00 | 1.99 | 0.31 | 66 | 1014.5 |
| 20260507161738 | 64 | 14 | 9.0 | 15.0 | 0.00 | 1.99 | 0.31 | 66 | 1014.5 |
| 20260507161625 | 64 | 22 | 10.0 | 15.0 | 0.00 | 1.99 | 0.31 | 65 | 1014.5 |
| 20260507161536 | 64 | 70 | 9.0 | 15.0 | 0.00 | 1.99 | 0.31 | 67 | 1014.5 |
| 20260507161422 | 64 | 5 | 9.0 | 15.0 | 0.00 | 1.99 | 0.31 | 67 | 1014.5 |
| 20260507161330 | 64 | 33 | 10.0 | 15.0 | 0.00 | 1.99 | 0.31 | 67 | 1014.6 |
| 20260507161218 | 64 | 32 | 10.0 | 15.0 | 0.00 | 1.99 | 0.31 | 68 | 1014.6 |
| 20260507161126 | 64 | 360 | 8.0 | 15.0 | 0.00 | 1.99 | 0.31 | 68 | 1014.6 |
| 20260507161018 | 64 | 335 | 4.0 | 11.0 | 0.00 | 1.99 | 0.31 | 69 | 1014.5 |
| 20260507160927 | 64 | 13 | 5.0 | 11.0 | 0.00 | 1.99 | 0.31 | 69 | 1014.5 |
| 20260507160815 | 64 | 5 | 6.0 | 14.0 | 0.00 | 1.99 | 0.31 | 68 | 1014.5 |
| 20260507160723 | 64 | 24 | 7.0 | 14.0 | 0.00 | 1.99 | 0.31 | 68 | 1014.5 |
| 20260507160630 | 64 | 30 | 8.0 | 14.0 | 0.00 | 1.99 | 0.31 | 69 | 1014.5 |
| 20260507160545 | 64 | 27 | 7.0 | 14.0 | 0.00 | 1.99 | 0.31 | 68 | 1014.6 |
| 20260507160319 | 63 | 34 | 8.0 | 14.0 | 0.00 | 1.99 | 0.31 | 69 | 1014.5 |
| 20260507160226 | 63 | 360 | 9.0 | 14.0 | 0.00 | 1.99 | 0.31 | 69 | 1014.5 |
| 20260507160113 | 63 | 21 | 8.0 | 15.0 | 0.00 | 1.99 | 0.31 | 70 | 1014.7 |
| 20260507160021 | 63 | 336 | 8.0 | 15.0 | 0.00 | 1.99 | 0.31 | 70 | 1014.7 |
| 20260507155927 | 63 | 11 | 9.0 | 15.0 | 0.00 | 1.99 | 0.31 | 69 | 1014.7 |
| 20260507155818 | 63 | 355 | 10.0 | 15.0 | 0.00 | 1.99 | 0.31 | 70 | 1014.6 |
| 20260507155726 | 63 | 5 | 8.0 | 16.0 | 0.00 | 1.99 | 0.31 | 71 | 1014.6 |
| 20260507155613 | 63 | 325 | 7.0 | 16.0 | 0.00 | 1.99 | 0.31 | 70 | 1014.6 |
| 20260507155521 | 63 | 16 | 8.0 | 16.0 | 0.00 | 1.99 | 0.31 | 70 | 1014.6 |
| 20260507155449 | 63 | 11 | 9.0 | 16.0 | 0.00 | 1.99 | 0.31 | 70 | 1014.5 |
| 20260507155319 | 62 | 32 | 9.0 | 16.0 | 0.00 | 1.99 | 0.31 | 70 | 1014.5 |
| 20260507155227 | 62 | 40 | 9.0 | 16.0 | 0.00 | 1.99 | 0.31 | 70 | 1014.5 |
| 20260507155154 | 62 | 19 | 9.0 | 16.0 | 0.00 | 1.99 | 0.31 | 70 | 1014.4 |
| 20260507155125 | 62 | 69 | 10.0 | 16.0 | 0.00 | 1.99 | 0.31 | 71 | 1014.5 |
| 20260507154818 | 62 | 20 | 10.0 | 15.0 | 0.00 | 1.99 | 0.31 | 71 | 1014.4 |
| 20260507154745 | 62 | 5 | 10.0 | 15.0 | 0.00 | 1.99 | 0.31 | 72 | 1014.4 |
| 20260507154616 | 62 | 31 | 10.0 | 16.0 | 0.00 | 1.99 | 0.31 | 73 | 1014.4 |
| 20260507154544 | 62 | 5 | 9.0 | 16.0 | 0.00 | 1.99 | 0.31 | 74 | 1014.4 |
| 20260507154430 | 62 | 18 | 9.0 | 16.0 | 0.00 | 1.99 | 0.31 | 72 | 1014.5 |
| 20260507154318 | 61 | 11 | 10.0 | 16.0 | 0.00 | 1.99 | 0.31 | 71 | 1014.4 |
| 20260507154225 | 61 | 360 | 10.0 | 16.0 | 0.00 | 1.99 | 0.31 | 71 | 1014.4 |
| 20260507154117 | 61 | 360 | 11.0 | 16.0 | 0.00 | 1.99 | 0.31 | 72 | 1014.5 |
| 20260507154025 | 61 | 344 | 12.0 | 16.0 | 0.00 | 1.99 | 0.31 | 71 | 1014.5 |
| 20260507153912 | 61 | 26 | 11.0 | 16.0 | 0.00 | 1.99 | 0.31 | 72 | 1014.5 |
| 20260507153821 | 61 | 349 | 9.0 | 16.0 | 0.00 | 1.99 | 0.31 | 73 | 1014.5 |
| 20260507153729 | 61 | 349 | 9.0 | 16.0 | 0.00 | 1.99 | 0.31 | 74 | 1014.5 |
| 20260507153615 | 61 | 351 | 8.0 | 14.0 | 0.00 | 1.99 | 0.31 | 74 | 1014.4 |
| 20260507153550 | 61 | 5 | 8.0 | 15.0 | 0.00 | 1.99 | 0.31 | 74 | 1014.4 |
| 20260507153323 | 61 | 333 | 9.0 | 15.0 | 0.00 | 1.99 | 0.31 | 75 | 1014.5 |
| 20260507153230 | 61 | 360 | 9.0 | 15.0 | 0.00 | 1.99 | 0.31 | 75 | 1014.4 |
| 20260507153118 | 61 | 355 | 8.0 | 15.0 | 0.00 | 1.99 | 0.31 | 74 | 1014.5 |
| 20260507153029 | 61 | 5 | 8.0 | 15.0 | 0.00 | 1.99 | 0.31 | 74 | 1014.5 |
| 20260507152918 | 61 | 5 | 8.0 | 15.0 | 0.00 | 1.99 | 0.31 | 74 | 1014.5 |
| 20260507152826 | 61 | 355 | 8.0 | 15.0 | 0.00 | 1.99 | 0.31 | 74 | 1014.5 |
| 20260507152713 | 61 | 17 | 9.0 | 15.0 | 0.00 | 1.99 | 0.31 | 74 | 1014.4 |
| 20260507152621 | 61 | 360 | 8.0 | 15.0 | 0.00 | 1.99 | 0.31 | 74 | 1014.4 |
| 20260507152513 | 61 | 20 | 8.0 | 13.0 | 0.00 | 1.99 | 0.31 | 74 | 1014.5 |
| 20260507152420 | 61 | 13 | 9.0 | 13.0 | 0.00 | 1.99 | 0.31 | 75 | 1014.5 |
| 20260507152349 | 61 | 360 | 8.0 | 12.0 | 0.00 | 1.99 | 0.31 | 75 | 1014.5 |
| 20260507152216 | 60 | 25 | 7.0 | 12.0 | 0.00 | 1.99 | 0.31 | 75 | 1014.5 |
| 20260507152122 | 60 | 18 | 8.0 | 12.0 | 0.00 | 1.99 | 0.31 | 77 | 1014.5 |
| 20260507152058 | 60 | 30 | 8.0 | 11.0 | 0.00 | 1.99 | 0.31 | 77 | 1014.5 |
| 20260507151811 | 60 | 38 | 7.0 | 13.0 | 0.00 | 1.99 | 0.31 | 77 | 1014.5 |
| 20260507151718 | 60 | 5 | 6.0 | 13.0 | 0.00 | 1.99 | 0.31 | 78 | 1014.4 |
| 20260507151625 | 60 | 347 | 6.0 | 13.0 | 0.00 | 1.99 | 0.31 | 77 | 1014.4 |
| 20260507151513 | 60 | 35 | 5.0 | 13.0 | 0.00 | 1.99 | 0.31 | 78 | 1014.5 |
| 20260507151419 | 60 | 355 | 6.0 | 13.0 | 0.00 | 1.99 | 0.31 | 77 | 1014.5 |
| 20260507151329 | 59 | 331 | 6.0 | 13.0 | 0.00 | 1.99 | 0.31 | 76 | 1014.5 |
| 20260507151217 | 59 | 23 | 7.0 | 13.0 | 0.00 | 1.99 | 0.31 | 77 | 1014.5 |
| 20260507151145 | 59 | 355 | 8.0 | 13.0 | 0.00 | 1.99 | 0.31 | 77 | 1014.5 |
| 20260507151031 | 59 | 5 | 10.0 | 13.0 | 0.00 | 1.99 | 0.31 | 77 | 1014.4 |
| 20260507150919 | 59 | 344 | 9.0 | 13.0 | 0.00 | 1.99 | 0.31 | 77 | 1014.4 |
| 20260507150827 | 59 | 5 | 8.0 | 12.0 | 0.00 | 1.99 | 0.31 | 78 | 1014.4 |
| 20260507150719 | 59 | 355 | 7.0 | 12.0 | 0.00 | 1.99 | 0.31 | 78 | 1014.4 |
| 20260507150646 | 59 | 17 | 6.0 | 12.0 | 0.00 | 1.99 | 0.31 | 78 | 1014.4 |
| 20260507150617 | 59 | 346 | 7.0 | 12.0 | 0.00 | 1.99 | 0.31 | 78 | 1014.4 |
| 20260507150310 | 59 | 339 | 7.0 | 12.0 | 0.00 | 1.99 | 0.31 | 78 | 1014.2 |
| 20260507150218 | 59 | 323 | 7.0 | 12.0 | 0.00 | 1.99 | 0.31 | 79 | 1014.3 |
| 20260507150130 | 59 | 350 | 8.0 | 13.0 | 0.00 | 1.99 | 0.31 | 79 | 1014.3 |
| 20260507150017 | 59 | 336 | 6.0 | 13.0 | 0.00 | 1.99 | 0.31 | 81 | 1014.3 |
| 20260507145924 | 59 | 13 | 6.0 | 13.0 | 0.00 | 1.99 | 0.31 | 81 | 1014.3 |
| 20260507145812 | 59 | 342 | 6.0 | 13.0 | 0.00 | 1.99 | 0.31 | 81 | 1014.3 |
| 20260507145721 | 59 | 360 | 5.0 | 13.0 | 0.00 | 1.99 | 0.31 | 82 | 1014.3 |
| 20260507145614 | 58 | 355 | 5.0 | 13.0 | 0.00 | 1.99 | 0.31 | 82 | 1014.3 |
| 20260507145521 | 58 | 22 | 7.0 | 13.0 | 0.00 | 1.99 | 0.31 | 81 | 1014.3 |
| 20260507145428 | 58 | 13 | 8.0 | 13.0 | 0.00 | 1.99 | 0.31 | 81 | 1014.3 |
| 20260507145317 | 58 | 355 | 8.0 | 13.0 | 0.00 | 1.99 | 0.31 | 82 | 1014.2 |
| 20260507145225 | 58 | 360 | 7.0 | 13.0 | 0.00 | 1.99 | 0.31 | 82 | 1014.2 |
| 20260507145116 | 58 | 32 | 6.0 | 12.0 | 0.00 | 1.99 | 0.31 | 82 | 1014.3 |
| 20260507145048 | 58 | 360 | 7.0 | 12.0 | 0.00 | 1.99 | 0.31 | 82 | 1014.3 |
| 20260507144823 | 58 | 355 | 8.0 | 12.0 | 0.00 | 1.99 | 0.31 | 82 | 1014.3 |
| 20260507144730 | 58 | 5 | 8.0 | 14.0 | 0.00 | 1.99 | 0.31 | 83 | 1014.3 |
| 20260507144617 | 58 | 338 | 8.0 | 14.0 | 0.00 | 1.99 | 0.31 | 84 | 1014.4 |
| 20260507144549 | 58 | 355 | 8.0 | 14.0 | 0.00 | 1.99 | 0.31 | 83 | 1014.4 |
| 20260507144413 | 58 | 11 | 8.0 | 14.0 | 0.00 | 1.99 | 0.31 | 83 | 1014.4 |
| 20260507144321 | 57 | 323 | 7.0 | 14.0 | 0.00 | 1.99 | 0.31 | 83 | 1014.4 |
| 20260507144228 | 57 | 9 | 9.0 | 14.0 | 0.00 | 1.99 | 0.31 | 83 | 1014.5 |
| 20260507144135 | 57 | 334 | 9.0 | 14.0 | 0.00 | 1.99 | 0.31 | 83 | 1014.4 |
| 20260507144021 | 57 | 5 | 9.0 | 14.0 | 0.00 | 1.99 | 0.31 | 83 | 1014.4 |
| 20260507143912 | 57 | 355 | 9.0 | 14.0 | 0.00 | 1.99 | 0.31 | 84 | 1014.5 |
| 20260507143840 | 57 | 323 | 7.0 | 13.0 | 0.00 | 1.99 | 0.31 | 84 | 1014.5 |
| 20260507143728 | 57 | 5 | 6.0 | 11.0 | 0.00 | 1.99 | 0.31 | 85 | 1014.5 |
| 20260507143614 | 57 | 355 | 6.0 | 14.0 | 0.00 | 1.99 | 0.31 | 85 | 1014.4 |
| 20260507143545 | 57 | 340 | 6.0 | 14.0 | 0.00 | 1.99 | 0.31 | 85 | 1014.4 |
| 20260507143323 | 57 | 355 | 7.0 | 14.0 | 0.00 | 1.99 | 0.31 | 85 | 1014.4 |
| 20260507143230 | 57 | 340 | 7.0 | 14.0 | 0.00 | 1.99 | 0.31 | 85 | 1014.3 |
| 20260507143115 | 57 | 317 | 6.0 | 14.0 | 0.00 | 1.99 | 0.31 | 85 | 1014.3 |
| 20260507143023 | 57 | 339 | 6.0 | 14.0 | 0.00 | 1.99 | 0.31 | 85 | 1014.3 |
| 20260507142930 | 57 | 360 | 7.0 | 15.0 | 0.00 | 1.99 | 0.31 | 85 | 1014.4 |
| 20260507142819 | 57 | 360 | 6.0 | 15.0 | 0.00 | 1.99 | 0.31 | 85 | 1014.4 |
| 20260507142711 | 57 | 345 | 5.0 | 15.0 | 0.00 | 1.99 | 0.31 | 85 | 1014.3 |
| 20260507142619 | 57 | 355 | 6.0 | 15.0 | 0.00 | 1.99 | 0.31 | 85 | 1014.2 |
| 20260507142546 | 56 | 12 | 7.0 | 15.0 | 0.00 | 1.99 | 0.31 | 85 | 1014.2 |
| 20260507142413 | 56 | 348 | 9.0 | 15.0 | 0.00 | 1.99 | 0.31 | 85 | 1014.3 |
| 20260507142321 | 56 | 308 | 9.0 | 15.0 | 0.00 | 1.99 | 0.31 | 85 | 1014.3 |
| 20260507142213 | 56 | 348 | 10.0 | 15.0 | 0.00 | 1.99 | 0.31 | 85 | 1014.3 |
| 20260507142141 | 56 | 5 | 10.0 | 15.0 | 0.00 | 1.99 | 0.31 | 85 | 1014.2 |
| 20260507142049 | 56 | 360 | 10.0 | 15.0 | 0.00 | 1.99 | 0.31 | 85 | 1014.2 |
| 20260507141823 | 56 | 346 | 10.0 | 15.0 | 0.00 | 1.99 | 0.31 | 85 | 1014.2 |
| 20260507141730 | 56 | 360 | 10.0 | 15.0 | 0.00 | 1.99 | 0.31 | 86 | 1014.1 |
| 20260507141623 | 56 | 355 | 10.0 | 15.0 | 0.00 | 1.99 | 0.31 | 86 | 1014.2 |
| 20260507141529 | 56 | 53 | 9.0 | 13.0 | 0.00 | 1.99 | 0.31 | 86 | 1014.1 |
| 20260507141417 | 56 | 5 | 7.0 | 13.0 | 0.00 | 1.99 | 0.31 | 86 | 1014.1 |
| 20260507141343 | 56 | 15 | 7.0 | 13.0 | 0.00 | 1.99 | 0.31 | 86 | 1014.1 |
| 20260507141230 | 56 | 24 | 6.0 | 14.0 | 0.00 | 1.99 | 0.31 | 86 | 1014.1 |
| 20260507141138 | 56 | 16 | 6.0 | 14.0 | 0.00 | 1.99 | 0.31 | 87 | 1014.1 |
| 20260507141025 | 56 | 35 | 7.0 | 14.0 | 0.00 | 1.99 | 0.31 | 86 | 1014.1 |
| 20260507140916 | 56 | 360 | 8.0 | 14.0 | 0.00 | 1.99 | 0.31 | 86 | 1014.1 |
| 20260507140823 | 56 | 319 | 8.0 | 14.0 | 0.00 | 1.99 | 0.31 | 86 | 1014.1 |
| 20260507140751 | 56 | 338 | 8.0 | 14.0 | 0.00 | 1.99 | 0.31 | 86 | 1014.0 |
| 20260507140638 | 56 | 325 | 8.0 | 14.0 | 0.00 | 1.99 | 0.31 | 87 | 1014.0 |
| 20260507140609 | 56 | 16 | 11.0 | 14.0 | 0.00 | 1.99 | 0.31 | 86 | 1014.0 |
| 20260507140325 | 56 | 334 | 10.0 | 14.0 | 0.00 | 1.99 | 0.31 | 87 | 1014.0 |
| 20260507140214 | 56 | 342 | 8.0 | 14.0 | 0.00 | 1.99 | 0.31 | 87 | 1013.9 |
| 20260507140121 | 56 | 338 | 8.0 | 14.0 | 0.00 | 1.99 | 0.31 | 87 | 1013.9 |
| 20260507140029 | 56 | 330 | 8.0 | 14.0 | 0.00 | 1.99 | 0.31 | 87 | 1013.9 |
| 20260507135918 | 56 | 329 | 8.0 | 14.0 | 0.00 | 1.99 | 0.31 | 87 | 1013.9 |
| 20260507135830 | 56 | 341 | 8.0 | 14.0 | 0.00 | 1.99 | 0.31 | 87 | 1013.9 |
| 20260507135737 | 56 | 332 | 9.0 | 14.0 | 0.00 | 1.99 | 0.31 | 87 | 1013.8 |
| 20260507135623 | 56 | 333 | 10.0 | 14.0 | 0.00 | 1.99 | 0.31 | 87 | 1013.8 |
| 20260507135511 | 56 | 11 | 9.0 | 14.0 | 0.00 | 1.99 | 0.31 | 88 | 1013.8 |
| 20260507135418 | 56 | 17 | 8.0 | 12.0 | 0.00 | 1.99 | 0.31 | 88 | 1013.8 |
| 20260507135324 | 56 | 351 | 8.0 | 12.0 | 0.00 | 1.99 | 0.31 | 88 | 1013.8 |
| 20260507135216 | 56 | 346 | 6.0 | 12.0 | 0.00 | 1.99 | 0.31 | 88 | 1013.8 |
| 20260507135121 | 56 | 5 | 5.0 | 12.0 | 0.00 | 1.99 | 0.31 | 88 | 1013.8 |
| 20260507135052 | 56 | 17 | 6.0 | 12.0 | 0.00 | 1.99 | 0.31 | 88 | 1013.8 |
| 20260507134846 | 56 | 9 | 7.0 | 12.0 | 0.00 | 1.99 | 0.31 | 88 | 1013.8 |
| 20260507134712 | 56 | 337 | 6.0 | 10.0 | 0.00 | 1.99 | 0.31 | 88 | 1013.8 |
| 20260507134624 | 56 | 331 | 6.0 | 10.0 | 0.00 | 1.99 | 0.31 | 88 | 1013.8 |
| 20260507134510 | 56 | 5 | 6.0 | 10.0 | 0.00 | 1.99 | 0.31 | 89 | 1013.8 |
| 20260507134419 | 56 | 351 | 7.0 | 11.0 | 0.00 | 2.62 | 0.31 | 89 | 1013.8 |
| 20260507134328 | 56 | 355 | 5.0 | 11.0 | 0.00 | 2.62 | 0.31 | 89 | 1013.8 |
| 20260507134215 | 56 | 17 | 5.0 | 12.0 | 0.00 | 2.62 | 0.31 | 89 | 1013.8 |
| 20260507134127 | 55 | 318 | 6.0 | 12.0 | 0.00 | 2.62 | 0.31 | 89 | 1013.8 |
| 20260507134015 | 55 | 5 | 7.0 | 14.0 | 0.00 | 2.62 | 0.31 | 89 | 1013.8 |
| 20260507133920 | 55 | 346 | 7.0 | 14.0 | 0.00 | 2.62 | 0.31 | 89 | 1013.8 |
| 20260507133847 | 55 | 16 | 7.0 | 14.0 | 0.00 | 2.62 | 0.31 | 89 | 1013.7 |
| 20260507133712 | 55 | 333 | 7.0 | 14.0 | 0.00 | 2.62 | 0.31 | 89 | 1013.8 |
| 20260507133640 | 55 | 323 | 6.0 | 14.0 | 0.00 | 2.62 | 0.31 | 89 | 1013.8 |
| 20260507133614 | 55 | 336 | 7.0 | 14.0 | 0.00 | 2.62 | 0.31 | 89 | 1013.7 |
| 20260507133327 | 55 | 355 | 8.0 | 14.0 | 0.00 | 2.62 | 0.31 | 89 | 1013.7 |
| 20260507133215 | 55 | 334 | 7.0 | 14.0 | 0.00 | 2.62 | 0.31 | 89 | 1013.6 |
| 20260507133122 | 55 | 313 | 6.0 | 14.0 | 0.00 | 2.62 | 0.31 | 89 | 1013.6 |
| 20260507133049 | 55 | 347 | 6.0 | 12.0 | 0.00 | 2.62 | 0.31 | 89 | 1013.5 |
| 20260507132921 | 55 | 24 | 7.0 | 12.0 | 0.00 | 2.62 | 0.31 | 90 | 1013.5 |
| 20260507132828 | 55 | 355 | 8.0 | 12.0 | 0.00 | 2.62 | 0.31 | 90 | 1013.5 |
| 20260507132736 | 55 | 344 | 9.0 | 12.0 | 0.00 | 2.62 | 0.31 | 90 | 1013.5 |
| 20260507132622 | 55 | 306 | 8.0 | 12.0 | 0.00 | 2.62 | 0.31 | 90 | 1013.5 |
| 20260507132528 | 55 | 349 | 7.0 | 12.0 | 0.00 | 2.62 | 0.31 | 90 | 1013.4 |
| 20260507132415 | 55 | 355 | 8.0 | 12.0 | 0.00 | 2.62 | 0.31 | 90 | 1013.4 |
| 20260507132343 | 55 | 347 | 9.0 | 12.0 | 0.00 | 2.62 | 0.31 | 90 | 1013.4 |
| 20260507132212 | 55 | 5 | 8.0 | 12.0 | 0.00 | 2.62 | 0.31 | 91 | 1013.4 |
| 20260507132140 | 55 | 12 | 8.0 | 12.0 | 0.00 | 2.62 | 0.31 | 91 | 1013.4 |
| 20260507132111 | 55 | 355 | 7.0 | 12.0 | 0.00 | 2.62 | 0.31 | 91 | 1013.3 |
| 20260507131845 | 55 | 343 | 6.0 | 11.0 | 0.00 | 2.62 | 0.31 | 91 | 1013.3 |
| 20260507131731 | 55 | 348 | 6.0 | 11.0 | 0.00 | 2.62 | 0.31 | 91 | 1013.3 |
| 20260507131623 | 55 | 360 | 7.0 | 11.0 | 0.00 | 2.62 | 0.31 | 91 | 1013.3 |
| 20260507131550 | 55 | 325 | 8.0 | 11.0 | 0.00 | 2.62 | 0.31 | 91 | 1013.3 |
| 20260507131437 | 55 | 324 | 8.0 | 11.0 | 0.00 | 2.62 | 0.31 | 92 | 1013.3 |
| 20260507131323 | 55 | 348 | 7.0 | 11.0 | 0.00 | 2.62 | 0.31 | 92 | 1013.3 |
| 20260507131228 | 55 | 342 | 7.0 | 11.0 | 0.00 | 2.62 | 0.31 | 92 | 1013.3 |
| 20260507131116 | 55 | 355 | 7.0 | 11.0 | 0.00 | 2.62 | 0.31 | 92 | 1013.3 |
| 20260507131024 | 55 | 342 | 8.0 | 11.0 | 0.00 | 2.62 | 0.31 | 92 | 1013.3 |
| 20260507130935 | 55 | 349 | 8.0 | 11.0 | 0.00 | 2.62 | 0.31 | 92 | 1013.3 |
| 20260507130822 | 55 | 340 | 7.0 | 11.0 | 0.00 | 2.62 | 0.31 | 92 | 1013.3 |
| 20260507130750 | 55 | 360 | 6.0 | 10.0 | 0.00 | 2.62 | 0.31 | 92 | 1013.3 |
| 20260507130637 | 55 | 355 | 5.0 | 9.0 | 0.00 | 2.62 | 0.31 | 93 | 1013.3 |
| 20260507130607 | 55 | 355 | 5.0 | 9.0 | 0.00 | 2.62 | 0.31 | 93 | 1013.3 |
| 20260507130324 | 55 | 335 | 5.0 | 9.0 | 0.00 | 2.62 | 0.31 | 93 | 1013.3 |
| 20260507130232 | 55 | 19 | 6.0 | 9.0 | 0.00 | 2.62 | 0.31 | 93 | 1013.3 |
| 20260507130118 | 55 | 5 | 6.0 | 10.0 | 0.00 | 2.62 | 0.31 | 93 | 1013.2 |
| 20260507130025 | 55 | 5 | 6.0 | 10.0 | 0.00 | 2.62 | 0.31 | 93 | 1013.2 |
| 20260507125913 | 55 | 9 | 6.0 | 10.0 | 0.00 | 2.62 | 0.31 | 93 | 1013.1 |
| 20260507125821 | 55 | 26 | 6.0 | 10.0 | 0.00 | 2.62 | 0.31 | 93 | 1013.1 |
| 20260507125712 | 54 | 360 | 6.0 | 10.0 | 0.00 | 2.62 | 0.31 | 93 | 1013.3 |
| 20260507125620 | 54 | 23 | 5.0 | 10.0 | 0.00 | 2.62 | 0.31 | 93 | 1013.3 |
| 20260507125528 | 54 | 355 | 4.0 | 10.0 | 0.00 | 2.62 | 0.31 | 93 | 1013.3 |
| 20260507125415 | 54 | 346 | 6.0 | 10.0 | 0.00 | 2.62 | 0.31 | 93 | 1013.3 |
| 20260507125322 | 54 | 332 | 6.0 | 10.0 | 0.00 | 2.62 | 0.31 | 94 | 1013.3 |
| 20260507125213 | 54 | 325 | 6.0 | 9.0 | 0.00 | 2.62 | 0.31 | 93 | 1013.3 |
| 20260507125140 | 54 | 355 | 6.0 | 9.0 | 0.00 | 2.62 | 0.31 | 93 | 1013.3 |
| 20260507125110 | 54 | 355 | 6.0 | 9.0 | 0.00 | 2.62 | 0.31 | 93 | 1013.2 |
| 20260507124824 | 54 | 14 | 5.0 | 9.0 | 0.00 | 2.62 | 0.31 | 94 | 1013.3 |
| 20260507124751 | 54 | 35 | 5.0 | 9.0 | 0.00 | 2.62 | 0.31 | 94 | 1013.3 |
| 20260507124617 | 54 | 355 | 6.0 | 10.0 | 0.00 | 2.62 | 0.31 | 94 | 1013.2 |
| 20260507124548 | 54 | 9 | 6.0 | 10.0 | 0.00 | 2.62 | 0.31 | 94 | 1013.2 |
| 20260507124416 | 54 | 5 | 6.0 | 10.0 | 0.00 | 2.62 | 0.31 | 94 | 1013.2 |
| 20260507124323 | 54 | 355 | 5.0 | 10.0 | 0.00 | 2.62 | 0.31 | 94 | 1013.2 |
| 20260507124230 | 54 | 5 | 5.0 | 10.0 | 0.00 | 2.62 | 0.31 | 94 | 1013.3 |
| 20260507124137 | 54 | 5 | 5.0 | 10.0 | 0.00 | 2.62 | 0.31 | 94 | 1013.3 |
| 20260507124023 | 54 | 5 | 6.0 | 10.0 | 0.00 | 2.62 | 0.31 | 94 | 1013.3 |
| 20260507123914 | 54 | 344 | 6.0 | 10.0 | 0.00 | 2.62 | 0.31 | 95 | 1013.2 |
| 20260507123842 | 54 | 332 | 6.0 | 10.0 | 0.00 | 2.62 | 0.31 | 95 | 1013.2 |
| 20260507123729 | 54 | 35 | 5.0 | 10.0 | 0.00 | 2.62 | 0.31 | 95 | 1013.2 |
| 20260507123618 | 54 | 347 | 6.0 | 11.0 | 0.00 | 2.62 | 0.31 | 95 | 1013.2 |
| 20260507123547 | 54 | 348 | 6.0 | 11.0 | 0.00 | 2.62 | 0.31 | 95 | 1013.2 |
| 20260507123325 | 54 | 5 | 7.0 | 11.0 | 0.00 | 2.62 | 0.31 | 95 | 1013.1 |
| 20260507123211 | 54 | 355 | 6.0 | 11.0 | 0.00 | 2.62 | 0.31 | 95 | 1013.1 |
| 20260507123119 | 54 | 348 | 6.0 | 13.0 | 0.00 | 2.62 | 0.31 | 95 | 1013.1 |
| 20260507123026 | 54 | 340 | 5.0 | 13.0 | 0.00 | 2.62 | 0.31 | 95 | 1013.1 |
| 20260507122933 | 54 | 347 | 7.0 | 13.0 | 0.00 | 2.62 | 0.31 | 95 | 1013.0 |
| 20260507122819 | 54 | 360 | 7.0 | 13.0 | 0.00 | 2.62 | 0.31 | 95 | 1013.0 |
| 20260507122711 | 54 | 18 | 7.0 | 13.0 | 0.00 | 2.62 | 0.31 | 95 | 1013.0 |
| 20260507122618 | 54 | 355 | 7.0 | 13.0 | 0.00 | 2.62 | 0.31 | 95 | 1013.0 |
| 20260507122526 | 54 | 26 | 6.0 | 13.0 | 0.00 | 2.62 | 0.31 | 95 | 1013.0 |
| 20260507122412 | 54 | 348 | 8.0 | 13.0 | 0.00 | 2.62 | 0.31 | 95 | 1013.0 |
| 20260507122340 | 54 | 14 | 8.0 | 13.0 | 0.00 | 2.62 | 0.31 | 95 | 1013.0 |
| 20260507122210 | 54 | 355 | 7.0 | 13.0 | 0.00 | 2.62 | 0.31 | 95 | 1012.9 |
| 20260507122118 | 54 | 355 | 5.0 | 11.0 | 0.00 | 2.62 | 0.31 | 95 | 1012.9 |
| 20260507122050 | 54 | 360 | 5.0 | 10.0 | 0.00 | 2.62 | 0.31 | 95 | 1012.9 |
| 20260507121824 | 54 | 355 | 6.0 | 10.0 | 0.00 | 2.62 | 0.31 | 95 | 1013.0 |
| 20260507121711 | 54 | 349 | 6.0 | 10.0 | 0.00 | 2.62 | 0.31 | 95 | 1013.0 |
| 20260507121643 | 54 | 9 | 6.0 | 10.0 | 0.00 | 2.62 | 0.31 | 95 | 1013.0 |
| 20260507121549 | 54 | 345 | 6.0 | 11.0 | 0.00 | 2.62 | 0.31 | 95 | 1013.0 |
| 20260507121435 | 54 | 349 | 6.0 | 11.0 | 0.00 | 2.62 | 0.31 | 96 | 1013.1 |
| 20260507121342 | 54 | 69 | 6.0 | 11.0 | 0.00 | 2.62 | 0.31 | 96 | 1013.1 |
| 20260507121229 | 54 | 341 | 5.0 | 11.0 | 0.00 | 2.62 | 0.31 | 96 | 1013.1 |
| 20260507121116 | 54 | 344 | 4.0 | 11.0 | 0.00 | 2.62 | 0.31 | 96 | 1013.0 |
| 20260507121024 | 54 | 355 | 5.0 | 11.0 | 0.00 | 2.62 | 0.31 | 96 | 1013.0 |
| 20260507120915 | 54 | 14 | 5.0 | 11.0 | 0.00 | 2.62 | 0.31 | 96 | 1013.1 |
| 20260507120823 | 54 | 329 | 6.0 | 11.0 | 0.00 | 2.62 | 0.31 | 96 | 1013.1 |
| 20260507120711 | 54 | 327 | 5.0 | 11.0 | 0.00 | 2.62 | 0.31 | 96 | 1013.0 |
| 20260507120618 | 54 | 15 | 5.0 | 10.0 | 0.00 | 2.62 | 0.31 | 96 | 1013.0 |
| 20260507120552 | 54 | 355 | 5.0 | 11.0 | 0.00 | 2.62 | 0.31 | 96 | 1013.0 |
| 20260507120327 | 54 | 5 | 6.0 | 11.0 | 0.00 | 2.62 | 0.31 | 96 | 1012.8 |
| 20260507120215 | 54 | 34 | 4.0 | 11.0 | 0.00 | 2.62 | 0.31 | 96 | 1012.7 |
| 20260507120122 | 54 | 355 | 4.0 | 11.0 | 0.00 | 2.62 | 0.31 | 96 | 1012.7 |
| 20260507120030 | 54 | 5 | 5.0 | 11.0 | 0.00 | 2.62 | 0.31 | 96 | 1012.6 |
| 20260507115918 | 54 | 360 | 7.0 | 11.0 | 0.00 | 2.62 | 0.31 | 96 | 1012.6 |
| 20260507115830 | 54 | 355 | 8.0 | 11.0 | 0.00 | 2.62 | 0.31 | 96 | 1012.6 |
| 20260507115717 | 54 | 21 | 7.0 | 11.0 | 0.00 | 2.62 | 0.31 | 96 | 1012.7 |
| 20260507115624 | 54 | 345 | 6.0 | 11.0 | 0.00 | 2.62 | 0.31 | 96 | 1012.7 |
| 20260507115511 | 54 | 355 | 5.0 | 11.0 | 0.00 | 2.62 | 0.31 | 96 | 1012.6 |
| 20260507115420 | 54 | 344 | 5.0 | 11.0 | 0.00 | 2.62 | 0.31 | 96 | 1012.6 |
| 20260507115311 | 54 | 360 | 6.0 | 11.0 | 0.00 | 2.62 | 0.31 | 96 | 1012.5 |
| 20260507115219 | 54 | 350 | 7.0 | 11.0 | 0.00 | 2.62 | 0.31 | 96 | 1012.6 |
| 20260507115126 | 54 | 344 | 7.0 | 11.0 | 0.00 | 2.62 | 0.31 | 96 | 1012.6 |
| 20260507115054 | 54 | 321 | 6.0 | 11.0 | 0.00 | 2.62 | 0.31 | 96 | 1012.6 |
| 20260507114812 | 54 | 318 | 5.0 | 11.0 | 0.00 | 2.62 | 0.31 | 96 | 1012.5 |
| 20260507114720 | 54 | 355 | 6.0 | 11.0 | 0.00 | 2.62 | 0.31 | 96 | 1012.5 |
| 20260507114627 | 54 | 338 | 7.0 | 11.0 | 0.00 | 2.62 | 0.31 | 96 | 1012.5 |
| 20260507114535 | 54 | 344 | 6.0 | 11.0 | 0.00 | 2.62 | 0.31 | 96 | 1012.6 |
| 20260507114421 | 54 | 355 | 4.0 | 11.0 | 0.00 | 2.62 | 0.31 | 96 | 1012.6 |
| 20260507114327 | 54 | 18 | 4.0 | 11.0 | 0.00 | 2.62 | 0.31 | 96 | 1012.5 |
| 20260507114219 | 54 | 341 | 6.0 | 11.0 | 0.00 | 2.62 | 0.31 | 96 | 1012.3 |
| 20260507114125 | 54 | 334 | 7.0 | 11.0 | 0.00 | 2.62 | 0.31 | 96 | 1012.3 |
| 20260507114012 | 54 | 336 | 8.0 | 11.0 | 0.00 | 2.62 | 0.31 | 96 | 1012.3 |
| 20260507113920 | 54 | 337 | 6.0 | 9.0 | 0.00 | 2.62 | 0.31 | 96 | 1012.3 |
| 20260507113827 | 54 | 5 | 6.0 | 9.0 | 0.00 | 2.62 | 0.31 | 96 | 1012.4 |
| 20260507113714 | 54 | 346 | 6.0 | 9.0 | 0.00 | 2.62 | 0.31 | 96 | 1012.5 |
| 20260507113626 | 54 | 343 | 5.0 | 9.0 | 0.00 | 2.62 | 0.31 | 96 | 1012.5 |
| 20260507113558 | 54 | 9 | 5.0 | 9.0 | 0.00 | 2.62 | 0.31 | 96 | 1012.4 |
| 20260507113312 | 54 | 342 | 5.0 | 9.0 | 0.00 | 2.62 | 0.31 | 96 | 1012.5 |
| 20260507113221 | 54 | 344 | 6.0 | 9.0 | 0.00 | 2.62 | 0.31 | 96 | 1012.5 |
| 20260507113132 | 54 | 16 | 6.0 | 9.0 | 0.00 | 2.62 | 0.31 | 96 | 1012.4 |
| 20260507113019 | 54 | 341 | 5.0 | 9.0 | 0.00 | 2.62 | 0.31 | 96 | 1012.4 |
| 20260507112924 | 54 | 360 | 5.0 | 9.0 | 0.00 | 2.62 | 0.31 | 96 | 1012.4 |
| 20260507112812 | 54 | 345 | 5.0 | 9.0 | 0.00 | 2.62 | 0.31 | 96 | 1012.4 |
| 20260507112740 | 54 | 338 | 4.0 | 9.0 | 0.00 | 2.62 | 0.31 | 96 | 1012.4 |
| 20260507112626 | 54 | 13 | 4.0 | 9.0 | 0.00 | 2.62 | 0.31 | 96 | 1012.4 |
| 20260507112533 | 53 | 338 | 4.0 | 9.0 | 0.00 | 2.62 | 0.31 | 96 | 1012.6 |
| 20260507112423 | 54 | 360 | 5.0 | 11.0 | 0.00 | 2.62 | 0.31 | 96 | 1012.6 |
| 20260507112311 | 54 | 348 | 5.0 | 13.0 | 0.00 | 2.62 | 0.31 | 96 | 1012.6 |
| 20260507112220 | 54 | 5 | 5.0 | 13.0 | 0.00 | 2.62 | 0.31 | 96 | 1012.6 |
| 20260507112128 | 54 | 341 | 5.0 | 13.0 | 0.00 | 2.62 | 0.31 | 96 | 1012.6 |
| 20260507112058 | 54 | 322 | 5.0 | 13.0 | 0.00 | 2.62 | 0.31 | 96 | 1012.5 |
| 20260507111817 | 53 | 360 | 5.0 | 13.0 | 0.00 | 2.62 | 0.31 | 96 | 1012.1 |
| 20260507111745 | 53 | 306 | 6.0 | 13.0 | 0.00 | 2.62 | 0.31 | 96 | 1012.1 |
| 20260507111611 | 54 | 341 | 8.0 | 13.0 | 0.00 | 2.62 | 0.31 | 96 | 1011.9 |
| 20260507111518 | 53 | 355 | 7.0 | 13.0 | 0.00 | 2.62 | 0.31 | 96 | 1012.0 |
| 20260507111446 | 53 | 360 | 5.0 | 10.0 | 0.00 | 2.62 | 0.31 | 96 | 1012.0 |
| 20260507111332 | 54 | 9 | 6.0 | 10.0 | 0.00 | 2.62 | 0.31 | 96 | 1012.1 |
| 20260507111222 | 54 | 348 | 7.0 | 10.0 | 0.00 | 2.62 | 0.31 | 96 | 1012.1 |
| 20260507111129 | 54 | 355 | 7.0 | 10.0 | 0.00 | 2.62 | 0.31 | 96 | 1012.0 |
| 20260507111016 | 54 | 12 | 4.0 | 10.0 | 0.00 | 2.62 | 0.31 | 96 | 1012.0 |
| 20260507110924 | 54 | 355 | 4.0 | 10.0 | 0.00 | 2.62 | 0.31 | 96 | 1012.0 |
| 20260507110811 | 54 | 11 | 6.0 | 10.0 | 0.00 | 2.62 | 0.31 | 96 | 1011.9 |
| 20260507110739 | 54 | 343 | 5.0 | 10.0 | 0.00 | 2.62 | 0.31 | 96 | 1011.9 |
| 20260507110629 | 54 | 360 | 5.0 | 10.0 | 0.00 | 2.62 | 0.31 | 96 | 1011.9 |
| 20260507110600 | 54 | 355 | 5.0 | 10.0 | 0.00 | 2.62 | 0.31 | 96 | 1011.9 |
| 20260507110314 | 54 | 355 | 5.0 | 10.0 | 0.00 | 2.62 | 0.31 | 96 | 1012.0 |
| 20260507110221 | 54 | 348 | 5.0 | 10.0 | 0.00 | 2.62 | 0.31 | 96 | 1012.0 |
| 20260507110112 | 54 | 360 | 6.0 | 10.0 | 0.00 | 2.62 | 0.31 | 96 | 1012.1 |
| 20260507110020 | 54 | 346 | 5.0 | 10.0 | 0.00 | 2.62 | 0.31 | 96 | 1012.1 |
| 20260507105929 | 54 | 333 | 5.0 | 10.0 | 0.00 | 2.62 | 0.31 | 96 | 1012.1 |
| 20260507105816 | 54 | 323 | 4.0 | 10.0 | 0.00 | 2.62 | 0.31 | 96 | 1012.2 |
| 20260507105724 | 53 | 336 | 5.0 | 10.0 | 0.00 | 2.62 | 0.31 | 96 | 1012.2 |
| 20260507105652 | 54 | 5 | 7.0 | 10.0 | 0.00 | 2.62 | 0.31 | 96 | 1012.2 |
| 20260507105522 | 54 | 360 | 7.0 | 10.0 | 0.00 | 2.62 | 0.31 | 96 | 1012.1 |
| 20260507105429 | 54 | 13 | 5.0 | 10.0 | 0.00 | 2.62 | 0.31 | 96 | 1012.1 |
| 20260507105337 | 54 | 323 | 5.0 | 10.0 | 0.00 | 2.62 | 0.31 | 96 | 1012.2 |
| 20260507105223 | 54 | 355 | 6.0 | 10.0 | 0.00 | 2.62 | 0.31 | 96 | 1012.2 |
| 20260507105129 | 54 | 323 | 5.0 | 10.0 | 0.00 | 2.62 | 0.31 | 96 | 1012.1 |
| 20260507105103 | 54 | 332 | 5.0 | 10.0 | 0.00 | 2.62 | 0.31 | 96 | 1012.1 |
| 20260507104838 | 54 | 348 | 3.0 | 9.0 | 0.00 | 2.62 | 0.31 | 96 | 1012.0 |
| 20260507104725 | 54 | 344 | 3.0 | 9.0 | 0.00 | 2.62 | 0.31 | 96 | 1012.0 |
| 20260507104613 | 54 | 9 | 3.0 | 9.0 | 0.00 | 2.62 | 0.31 | 96 | 1011.8 |
| 20260507104521 | 54 | 24 | 3.0 | 9.0 | 0.00 | 2.62 | 0.31 | 96 | 1011.8 |
| 20260507104429 | 54 | 15 | 4.0 | 9.0 | 0.00 | 2.62 | 0.31 | 96 | 1011.7 |
| 20260507104322 | 54 | 9 | 5.0 | 9.0 | 0.00 | 2.62 | 0.31 | 96 | 1011.7 |
| 20260507104228 | 54 | 31 | 5.0 | 9.0 | 0.00 | 2.62 | 0.31 | 96 | 1011.8 |
| 20260507104137 | 54 | 26 | 4.0 | 9.0 | 0.00 | 2.62 | 0.31 | 96 | 1011.7 |
| 20260507104023 | 54 | 18 | 4.0 | 9.0 | 0.00 | 2.62 | 0.31 | 96 | 1011.7 |
| 20260507103930 | 54 | 348 | 4.0 | 9.0 | 0.00 | 2.62 | 0.31 | 96 | 1011.7 |
| 20260507103818 | 54 | 13 | 5.0 | 9.0 | 0.00 | 2.62 | 0.31 | 96 | 1011.8 |
| 20260507103730 | 54 | 34 | 5.0 | 11.0 | 0.00 | 2.62 | 0.31 | 96 | 1011.8 |
| 20260507103638 | 54 | 31 | 4.0 | 11.0 | 0.00 | 2.62 | 0.31 | 96 | 1012.0 |
| 20260507103607 | 54 | 5 | 4.0 | 11.0 | 0.00 | 2.62 | 0.31 | 96 | 1012.0 |
| 20260507103319 | 54 | 355 | 3.0 | 11.0 | 0.00 | 2.62 | 0.31 | 96 | 1012.1 |
| 20260507103226 | 54 | 5 | 4.0 | 11.0 | 0.00 | 2.62 | 0.31 | 96 | 1012.1 |
| 20260507103118 | 54 | 360 | 6.0 | 11.0 | 0.00 | 2.62 | 0.31 | 96 | 1012.1 |
| 20260507103026 | 54 | 5 | 7.0 | 11.0 | 0.00 | 2.62 | 0.31 | 96 | 1012.1 |
| 20260507102934 | 54 | 12 | 7.0 | 11.0 | 0.00 | 2.62 | 0.31 | 96 | 1012.0 |
| 20260507102820 | 54 | 355 | 6.0 | 11.0 | 0.00 | 2.62 | 0.31 | 96 | 1012.0 |
| 20260507102728 | 54 | 5 | 6.0 | 11.0 | 0.00 | 2.62 | 0.31 | 96 | 1012.0 |
| 20260507102620 | 54 | 9 | 5.0 | 12.0 | 0.00 | 2.62 | 0.31 | 96 | 1011.9 |
| 20260507102527 | 54 | 346 | 5.0 | 12.0 | 0.00 | 2.62 | 0.31 | 96 | 1011.9 |
| 20260507102414 | 54 | 5 | 5.0 | 12.0 | 0.00 | 2.62 | 0.31 | 96 | 1011.9 |
| 20260507102322 | 54 | 26 | 5.0 | 12.0 | 0.00 | 2.62 | 0.31 | 96 | 1011.9 |
| 20260507102249 | 54 | 360 | 6.0 | 12.0 | 0.00 | 2.62 | 0.31 | 96 | 1011.9 |
| 20260507102117 | 54 | 355 | 8.0 | 12.0 | 0.00 | 2.62 | 0.31 | 96 | 1011.9 |
| 20260507102052 | 54 | 26 | 7.0 | 12.0 | 0.00 | 2.62 | 0.31 | 96 | 1011.9 |
| 20260507101826 | 54 | 16 | 5.0 | 12.0 | 0.00 | 2.62 | 0.31 | 96 | 1011.8 |
| 20260507101714 | 54 | 24 | 3.0 | 13.0 | 0.00 | 2.62 | 0.31 | 96 | 1011.7 |
| 20260507101622 | 54 | 355 | 4.0 | 13.0 | 0.00 | 2.62 | 0.31 | 96 | 1011.7 |
| 20260507101513 | 54 | 22 | 6.0 | 13.0 | 0.00 | 2.62 | 0.31 | 96 | 1011.8 |
| 20260507101421 | 54 | 35 | 6.0 | 13.0 | 0.00 | 2.62 | 0.31 | 96 | 1011.8 |
| 20260507101329 | 54 | 5 | 7.0 | 13.0 | 0.00 | 2.62 | 0.31 | 96 | 1011.8 |
| 20260507101236 | 54 | 355 | 6.0 | 13.0 | 0.00 | 2.62 | 0.31 | 96 | 1011.8 |
| 20260507101122 | 54 | 355 | 7.0 | 13.0 | 0.00 | 2.62 | 0.31 | 96 | 1011.8 |
| 20260507101050 | 54 | 349 | 7.0 | 13.0 | 0.00 | 2.62 | 0.31 | 96 | 1011.7 |
| 20260507100918 | 54 | 15 | 7.0 | 13.0 | 0.00 | 2.62 | 0.31 | 96 | 1011.6 |
| 20260507100829 | 54 | 340 | 6.0 | 13.0 | 0.00 | 2.62 | 0.31 | 96 | 1011.6 |
| 20260507100716 | 54 | 5 | 7.0 | 13.0 | 0.00 | 2.62 | 0.31 | 96 | 1011.5 |
| 20260507100643 | 54 | 25 | 8.0 | 13.0 | 0.00 | 2.62 | 0.31 | 96 | 1011.5 |
| 20260507100552 | 54 | 332 | 7.0 | 13.0 | 0.00 | 2.62 | 0.31 | 96 | 1011.5 |
| 20260507100311 | 54 | 57 | 7.0 | 13.0 | 0.00 | 2.62 | 0.31 | 96 | 1011.5 |
| 20260507100219 | 54 | 360 | 6.0 | 12.0 | 0.00 | 2.62 | 0.31 | 96 | 1011.5 |
| 20260507100148 | 54 | 15 | 5.0 | 11.0 | 0.00 | 2.62 | 0.31 | 96 | 1011.5 |
| 20260507100014 | 54 | 5 | 6.0 | 11.0 | 0.00 | 2.62 | 0.31 | 96 | 1011.2 |
| 20260507095921 | 54 | 331 | 6.0 | 11.0 | 0.00 | 2.62 | 0.31 | 96 | 1011.2 |
| 20260507095829 | 54 | 355 | 6.0 | 11.0 | 0.00 | 2.62 | 0.31 | 96 | 1011.2 |
| 20260507095720 | 54 | 5 | 6.0 | 11.0 | 0.00 | 2.62 | 0.31 | 96 | 1011.2 |
| 20260507095626 | 54 | 10 | 6.0 | 11.0 | 0.00 | 2.62 | 0.31 | 96 | 1011.3 |
| 20260507095534 | 54 | 5 | 6.0 | 11.0 | 0.00 | 2.62 | 0.31 | 96 | 1011.5 |
| 20260507095442 | 54 | 349 | 5.0 | 10.0 | 0.00 | 2.62 | 0.31 | 96 | 1011.5 |
| 20260507095328 | 54 | 20 | 5.0 | 10.0 | 0.00 | 2.62 | 0.31 | 96 | 1011.5 |
| 20260507095215 | 54 | 26 | 5.0 | 10.0 | 0.00 | 2.62 | 0.31 | 96 | 1011.6 |
| 20260507095142 | 54 | 53 | 5.0 | 10.0 | 0.00 | 2.62 | 0.31 | 96 | 1011.6 |
| 20260507095056 | 54 | 22 | 5.0 | 10.0 | 0.01 | 2.62 | 0.31 | 96 | 1011.6 |
| 20260507094830 | 54 | 34 | 6.0 | 10.0 | 0.01 | 2.62 | 0.31 | 96 | 1011.8 |
| 20260507094718 | 54 | 342 | 5.0 | 10.0 | 0.01 | 2.62 | 0.31 | 96 | 1011.7 |
| 20260507094626 | 54 | 5 | 5.0 | 10.0 | 0.01 | 2.62 | 0.31 | 96 | 1011.7 |
| 20260507094518 | 54 | 12 | 6.0 | 10.0 | 0.01 | 2.62 | 0.31 | 96 | 1011.6 |
| 20260507094426 | 54 | 355 | 6.0 | 10.0 | 0.01 | 2.62 | 0.31 | 96 | 1011.6 |
| 20260507094313 | 54 | 32 | 7.0 | 10.0 | 0.01 | 2.62 | 0.31 | 96 | 1011.6 |
| 20260507094220 | 54 | 5 | 6.0 | 10.0 | 0.01 | 2.62 | 0.31 | 96 | 1011.6 |
| 20260507094149 | 55 | 334 | 6.0 | 10.0 | 0.01 | 2.62 | 0.31 | 96 | 1011.8 |
| 20260507094016 | 55 | 340 | 5.0 | 11.0 | 0.01 | 2.62 | 0.31 | 96 | 1012.0 |
| 20260507093927 | 54 | 319 | 5.0 | 11.0 | 0.01 | 2.62 | 0.31 | 96 | 1012.0 |
| 20260507093813 | 54 | 336 | 6.0 | 11.0 | 0.01 | 2.62 | 0.31 | 96 | 1012.0 |
| 20260507093720 | 55 | 360 | 6.0 | 11.0 | 0.01 | 2.62 | 0.31 | 96 | 1012.0 |
| 20260507093627 | 55 | 360 | 6.0 | 14.0 | 0.01 | 2.62 | 0.31 | 96 | 1012.1 |
| 20260507093556 | 55 | 344 | 6.0 | 14.0 | 0.02 | 2.62 | 0.31 | 96 | 1012.1 |
| 20260507093314 | 55 | 350 | 6.0 | 14.0 | 0.03 | 2.62 | 0.31 | 96 | 1011.8 |
| 20260507093220 | 55 | 349 | 5.0 | 14.0 | 0.03 | 2.62 | 0.31 | 96 | 1011.8 |
| 20260507093129 | 55 | 345 | 5.0 | 14.0 | 0.03 | 2.62 | 0.31 | 96 | 1011.8 |
| 20260507093016 | 55 | 355 | 5.0 | 14.0 | 0.04 | 2.62 | 0.31 | 96 | 1011.4 |
| 20260507092924 | 55 | 30 | 6.0 | 14.0 | 0.04 | 2.62 | 0.31 | 96 | 1011.4 |
| 20260507092816 | 55 | 348 | 9.0 | 14.0 | 0.05 | 2.62 | 0.31 | 96 | 1011.3 |
| 20260507092743 | 55 | 360 | 9.0 | 14.0 | 0.05 | 2.62 | 0.31 | 96 | 1011.3 |
| 20260507092611 | 55 | 355 | 7.0 | 12.0 | 0.06 | 2.62 | 0.31 | 96 | 1011.1 |
| 20260507092520 | 55 | 355 | 6.0 | 11.0 | 0.06 | 2.62 | 0.31 | 96 | 1011.1 |
| 20260507092428 | 55 | 360 | 6.0 | 10.0 | 0.06 | 2.62 | 0.31 | 96 | 1011.0 |
| 20260507092335 | 55 | 14 | 5.0 | 10.0 | 0.07 | 2.62 | 0.31 | 96 | 1011.1 |
| 20260507092225 | 55 | 350 | 4.0 | 10.0 | 0.07 | 2.62 | 0.31 | 96 | 1011.1 |
| 20260507092133 | 55 | 17 | 4.0 | 9.0 | 0.07 | 2.62 | 0.31 | 96 | 1011.2 |
| 20260507092103 | 55 | 355 | 4.0 | 9.0 | 0.08 | 2.62 | 0.31 | 96 | 1011.1 |
| 20260507091836 | 55 | 22 | 5.0 | 10.0 | 0.09 | 2.62 | 0.31 | 96 | 1011.6 |
| 20260507091722 | 55 | 25 | 5.0 | 10.0 | 0.09 | 2.62 | 0.31 | 96 | 1011.6 |
| 20260507091614 | 55 | 360 | 5.0 | 10.0 | 0.11 | 2.62 | 0.31 | 96 | 1011.5 |
| 20260507091521 | 55 | 29 | 6.0 | 10.0 | 0.11 | 2.62 | 0.31 | 96 | 1011.5 |
| 20260507091429 | 55 | 5 | 6.0 | 11.0 | 0.11 | 2.62 | 0.31 | 96 | 1011.4 |
| 20260507091316 | 55 | 16 | 6.0 | 11.0 | 0.14 | 2.62 | 0.31 | 96 | 1011.4 |
| 20260507091223 | 55 | 5 | 6.0 | 11.0 | 0.14 | 2.62 | 0.31 | 96 | 1011.4 |
| 20260507091114 | 55 | 23 | 6.0 | 11.0 | 0.16 | 2.62 | 0.31 | 96 | 1011.7 |
| 20260507091021 | 55 | 9 | 5.0 | 11.0 | 0.16 | 2.62 | 0.31 | 96 | 1011.7 |
| 20260507090929 | 55 | 14 | 5.0 | 11.0 | 0.18 | 2.62 | 0.31 | 96 | 1011.9 |
| 20260507090817 | 55 | 349 | 5.0 | 11.0 | 0.21 | 2.62 | 0.31 | 96 | 1011.9 |
| 20260507090725 | 55 | 360 | 5.0 | 11.0 | 0.21 | 2.62 | 0.31 | 96 | 1011.9 |
| 20260507090612 | 55 | 24 | 6.0 | 12.0 | 0.22 | 2.62 | 0.31 | 96 | 1011.8 |
| 20260507090547 | 55 | 339 | 5.0 | 12.0 | 0.22 | 2.62 | 0.31 | 96 | 1011.8 |
| 20260507090321 | 55 | 355 | 4.0 | 12.0 | 0.23 | 2.62 | 0.31 | 96 | 1012.0 |
| 20260507090227 | 55 | 40 | 4.0 | 12.0 | 0.24 | 2.62 | 0.31 | 96 | 1012.0 |
| 20260507090115 | 55 | 14 | 6.0 | 12.0 | 0.25 | 2.62 | 0.31 | 96 | 1011.9 |
| 20260507090027 | 55 | 348 | 6.0 | 12.0 | 0.25 | 2.62 | 0.31 | 96 | 1011.9 |
| 20260507085934 | 55 | 5 | 6.0 | 12.0 | 0.26 | 2.62 | 0.31 | 96 | 1011.9 |
| 20260507085820 | 55 | 355 | 8.0 | 12.0 | 0.26 | 2.62 | 0.31 | 96 | 1011.9 |
| 20260507085747 | 55 | 321 | 8.0 | 12.0 | 0.26 | 2.62 | 0.31 | 96 | 1011.9 |
| 20260507085614 | 55 | 360 | 7.0 | 12.0 | 0.26 | 2.62 | 0.31 | 96 | 1012.0 |
| 20260507085521 | 55 | 5 | 6.0 | 11.0 | 0.26 | 2.62 | 0.31 | 96 | 1012.0 |
| 20260507085413 | 55 | 5 | 5.0 | 11.0 | 0.26 | 2.62 | 0.31 | 96 | 1012.0 |
| 20260507085320 | 55 | 355 | 6.0 | 11.0 | 0.26 | 2.62 | 0.31 | 96 | 1012.0 |
| 20260507085228 | 55 | 355 | 6.0 | 11.0 | 0.26 | 2.62 | 0.31 | 96 | 1012.1 |
| 20260507085115 | 55 | 355 | 7.0 | 11.0 | 0.25 | 2.61 | 0.30 | 96 | 1012.0 |
| 20260507085046 | 55 | 355 | 6.0 | 10.0 | 0.25 | 2.61 | 0.30 | 96 | 1012.0 |
| 20260507084823 | 55 | 322 | 5.0 | 9.0 | 0.25 | 2.61 | 0.30 | 96 | 1011.8 |
| 20260507084711 | 55 | 11 | 4.0 | 10.0 | 0.25 | 2.61 | 0.30 | 96 | 1011.7 |
| 20260507084619 | 55 | 9 | 4.0 | 10.0 | 0.25 | 2.61 | 0.30 | 96 | 1011.7 |
| 20260507084526 | 55 | 13 | 4.0 | 10.0 | 0.25 | 2.61 | 0.30 | 96 | 1011.6 |
| 20260507084415 | 55 | 355 | 5.0 | 10.0 | 0.25 | 2.61 | 0.30 | 96 | 1011.3 |
| 20260507084326 | 55 | 34 | 4.0 | 10.0 | 0.25 | 2.61 | 0.30 | 96 | 1011.3 |
| 20260507084213 | 55 | 47 | 4.0 | 10.0 | 0.25 | 2.61 | 0.30 | 96 | 1011.1 |
| 20260507084119 | 55 | 73 | 5.0 | 13.0 | 0.25 | 2.61 | 0.30 | 96 | 1011.2 |
| 20260507084027 | 55 | 22 | 5.0 | 13.0 | 0.25 | 2.61 | 0.30 | 96 | 1011.2 |
| 20260507083936 | 55 | 44 | 6.0 | 13.0 | 0.26 | 2.61 | 0.30 | 96 | 1011.2 |
| 20260507083821 | 55 | 355 | 7.0 | 14.0 | 0.26 | 2.61 | 0.30 | 96 | 1011.2 |
| 20260507083713 | 55 | 5 | 6.0 | 14.0 | 0.26 | 2.61 | 0.30 | 96 | 1011.2 |
| 20260507083620 | 55 | 27 | 5.0 | 14.0 | 0.25 | 2.60 | 0.29 | 96 | 1011.2 |
| 20260507083551 | 55 | 11 | 5.0 | 14.0 | 0.25 | 2.60 | 0.29 | 96 | 1011.1 |
| 20260507083324 | 55 | 355 | 7.0 | 14.0 | 0.24 | 2.59 | 0.28 | 96 | 1011.4 |
| 20260507083213 | 55 | 19 | 10.0 | 14.0 | 0.24 | 2.59 | 0.28 | 95 | 1010.5 |
| 20260507083125 | 55 | 42 | 9.0 | 14.0 | 0.23 | 2.58 | 0.27 | 95 | 1010.5 |
| 20260507083012 | 55 | 34 | 7.0 | 14.0 | 0.23 | 2.58 | 0.27 | 95 | 1010.7 |
| 20260507082941 | 55 | 51 | 5.0 | 11.0 | 0.22 | 2.57 | 0.26 | 96 | 1010.7 |
| 20260507082828 | 55 | 360 | 5.0 | 11.0 | 0.23 | 2.57 | 0.26 | 95 | 1011.3 |
| 20260507082714 | 55 | 355 | 5.0 | 11.0 | 0.24 | 2.57 | 0.26 | 95 | 1012.0 |
| 20260507082620 | 55 | 28 | 5.0 | 12.0 | 0.23 | 2.56 | 0.25 | 95 | 1012.0 |
| 20260507082511 | 55 | 355 | 6.0 | 13.0 | 0.25 | 2.56 | 0.25 | 95 | 1012.2 |
| 20260507082418 | 55 | 339 | 7.0 | 13.0 | 0.24 | 2.55 | 0.24 | 95 | 1012.4 |
| 20260507082326 | 55 | 17 | 8.0 | 13.0 | 0.24 | 2.55 | 0.24 | 95 | 1012.4 |
| 20260507082214 | 55 | 320 | 7.0 | 13.0 | 0.24 | 2.55 | 0.24 | 95 | 1012.5 |
| 20260507082123 | 55 | 24 | 7.0 | 13.0 | 0.23 | 2.54 | 0.23 | 95 | 1012.5 |
| 20260507082057 | 55 | 22 | 8.0 | 13.0 | 0.23 | 2.54 | 0.23 | 95 | 1012.4 |
| 20260507081811 | 55 | 345 | 9.0 | 13.0 | 0.22 | 2.53 | 0.22 | 95 | 1012.3 |
| 20260507081718 | 55 | 355 | 9.0 | 13.0 | 0.21 | 2.52 | 0.21 | 95 | 1012.3 |
| 20260507081625 | 55 | 305 | 8.0 | 13.0 | 0.20 | 2.51 | 0.20 | 95 | 1012.3 |
| 20260507081517 | 55 | 327 | 7.0 | 11.0 | 0.20 | 2.51 | 0.20 | 95 | 1012.3 |
| 20260507081444 | 55 | 337 | 6.0 | 11.0 | 0.19 | 2.50 | 0.19 | 95 | 1012.3 |
| 20260507081328 | 55 | 342 | 6.0 | 11.0 | 0.18 | 2.49 | 0.18 | 95 | 1011.9 |
| 20260507081214 | 55 | 11 | 6.0 | 11.0 | 0.16 | 2.47 | 0.16 | 95 | 1011.7 |
| 20260507081120 | 55 | 5 | 6.0 | 11.0 | 0.15 | 2.46 | 0.15 | 95 | 1011.7 |
| 20260507081028 | 55 | 324 | 5.0 | 12.0 | 0.14 | 2.45 | 0.14 | 95 | 1012.1 |
| 20260507080915 | 55 | 349 | 5.0 | 12.0 | 0.11 | 2.42 | 0.11 | 95 | 1012.4 |
| 20260507080827 | 55 | 319 | 5.0 | 12.0 | 0.10 | 2.41 | 0.10 | 95 | 1012.4 |
| 20260507080715 | 55 | 336 | 6.0 | 12.0 | 0.09 | 2.40 | 0.09 | 95 | 1012.5 |
| 20260507080621 | 55 | 348 | 6.0 | 12.0 | 0.09 | 2.40 | 0.09 | 95 | 1012.5 |
| 20260507080551 | 55 | 342 | 5.0 | 12.0 | 0.08 | 2.39 | 0.08 | 95 | 1012.5 |
| 20260507080325 | 55 | 5 | 6.0 | 12.0 | 0.07 | 2.38 | 0.07 | 95 | 1012.2 |
| 20260507080217 | 55 | 355 | 8.0 | 12.0 | 0.07 | 2.38 | 0.07 | 95 | 1011.8 |
| 20260507080125 | 55 | 5 | 9.0 | 12.0 | 0.06 | 2.37 | 0.06 | 95 | 1011.8 |
| 20260507080012 | 55 | 22 | 9.0 | 13.0 | 0.06 | 2.37 | 0.06 | 95 | 1011.2 |
| 20260507075920 | 55 | 15 | 8.0 | 13.0 | 0.05 | 2.36 | 0.05 | 95 | 1011.2 |
| 20260507075826 | 55 | 5 | 8.0 | 13.0 | 0.05 | 2.36 | 0.05 | 95 | 1011.1 |
| 20260507075737 | 55 | 5 | 7.0 | 13.0 | 0.05 | 2.36 | 0.05 | 95 | 1011.0 |
| 20260507075644 | 55 | 5 | 7.0 | 13.0 | 0.05 | 2.36 | 0.05 | 95 | 1011.0 |
| 20260507075530 | 55 | 32 | 7.0 | 13.0 | 0.05 | 2.36 | 0.05 | 95 | 1010.8 |
| 20260507075417 | 55 | 355 | 6.0 | 13.0 | 0.05 | 2.36 | 0.05 | 95 | 1010.7 |
| 20260507075345 | 55 | 28 | 6.0 | 13.0 | 0.05 | 2.36 | 0.05 | 95 | 1010.7 |
| 20260507075232 | 55 | 63 | 7.0 | 13.0 | 0.05 | 2.36 | 0.05 | 95 | 1010.7 |
| 20260507075139 | 55 | 355 | 8.0 | 13.0 | 0.05 | 2.36 | 0.05 | 95 | 1010.7 |
| 20260507075115 | 55 | 30 | 7.0 | 14.0 | 0.05 | 2.36 | 0.05 | 95 | 1010.7 |
| 20260507074827 | 55 | 45 | 6.0 | 14.0 | 0.05 | 2.36 | 0.05 | 95 | 1010.6 |
| 20260507074715 | 55 | 12 | 6.0 | 14.0 | 0.05 | 2.36 | 0.05 | 95 | 1010.8 |
| 20260507074622 | 55 | 23 | 6.0 | 14.0 | 0.05 | 2.36 | 0.05 | 95 | 1010.8 |
| 20260507074530 | 55 | 19 | 6.0 | 14.0 | 0.05 | 2.36 | 0.05 | 95 | 1010.8 |
| 20260507074420 | 55 | 5 | 6.0 | 14.0 | 0.05 | 2.36 | 0.05 | 95 | 1010.9 |
| 20260507074327 | 55 | 42 | 7.0 | 14.0 | 0.05 | 2.36 | 0.05 | 95 | 1010.9 |
| 20260507074214 | 55 | 355 | 9.0 | 14.0 | 0.05 | 2.36 | 0.05 | 95 | 1011.1 |
| 20260507074123 | 55 | 22 | 9.0 | 14.0 | 0.05 | 2.36 | 0.05 | 95 | 1011.1 |
| 20260507074010 | 55 | 42 | 7.0 | 14.0 | 0.05 | 2.36 | 0.05 | 95 | 1011.0 |
| 20260507073921 | 55 | 5 | 7.0 | 14.0 | 0.04 | 2.35 | 0.04 | 95 | 1011.0 |
| 20260507073848 | 55 | 23 | 9.0 | 14.0 | 0.04 | 2.35 | 0.04 | 95 | 1011.1 |
| 20260507073715 | 55 | 33 | 10.0 | 14.0 | 0.04 | 2.35 | 0.04 | 95 | 1011.2 |
| 20260507073643 | 55 | 26 | 10.0 | 14.0 | 0.04 | 2.35 | 0.04 | 95 | 1011.2 |
| 20260507073613 | 55 | 5 | 9.0 | 14.0 | 0.04 | 2.35 | 0.04 | 95 | 1011.2 |
| 20260507073345 | 55 | 360 | 8.0 | 14.0 | 0.04 | 2.35 | 0.04 | 95 | 1011.4 |
| 20260507073214 | 55 | 344 | 8.0 | 14.0 | 0.04 | 2.35 | 0.04 | 95 | 1011.7 |
| 20260507073120 | 55 | 24 | 8.0 | 14.0 | 0.04 | 2.35 | 0.04 | 95 | 1011.7 |
| 20260507073027 | 55 | 34 | 9.0 | 14.0 | 0.04 | 2.35 | 0.04 | 95 | 1011.6 |
| 20260507072913 | 55 | 18 | 10.0 | 14.0 | 0.03 | 2.34 | 0.03 | 95 | 1011.7 |
| 20260507072820 | 55 | 15 | 10.0 | 14.0 | 0.02 | 2.33 | 0.02 | 95 | 1011.7 |
| 20260507072728 | 55 | 14 | 10.0 | 14.0 | 0.02 | 2.33 | 0.02 | 95 | 1011.8 |
| 20260507072619 | 55 | 39 | 10.0 | 14.0 | 0.01 | 2.32 | 0.01 | 95 | 1012.0 |
| 20260507072527 | 55 | 5 | 9.0 | 14.0 | 0.00 | 2.31 | 0.00 | 95 | 1012.5 |
| 20260507072413 | 55 | 360 | 8.0 | 14.0 | 0.00 | 2.31 | 0.00 | 95 | 1013.3 |
| 20260507072320 | 55 | 345 | 9.0 | 14.0 | 0.00 | 2.31 | 0.00 | 95 | 1013.3 |
| 20260507072227 | 55 | 307 | 10.0 | 14.0 | 0.00 | 2.31 | 0.00 | 95 | 1013.4 |
| 20260507072136 | 55 | 311 | 9.0 | 14.0 | 0.00 | 2.31 | 0.00 | 95 | 1013.3 |
| 20260507072110 | 55 | 327 | 7.0 | 14.0 | 0.00 | 2.31 | 0.00 | 95 | 1013.7 |
| 20260507071844 | 55 | 16 | 7.0 | 14.0 | 0.00 | 2.31 | 0.00 | 95 | 1012.3 |
| 20260507071729 | 55 | 5 | 9.0 | 14.0 | 0.00 | 2.31 | 0.00 | 95 | 1012.1 |
| 20260507071618 | 55 | 27 | 9.0 | 15.0 | 0.00 | 2.31 | 0.00 | 95 | 1011.6 |
| 20260507071526 | 55 | 11 | 9.0 | 15.0 | 0.00 | 2.31 | 0.00 | 95 | 1011.6 |
| 20260507071417 | 55 | 360 | 9.0 | 15.0 | 0.00 | 2.31 | 0.00 | 95 | 1011.4 |
| 20260507071323 | 55 | 57 | 9.0 | 15.0 | 0.00 | 2.31 | 0.00 | 95 | 1011.4 |
| 20260507071211 | 55 | 15 | 9.0 | 15.0 | 0.00 | 2.31 | 0.00 | 95 | 1011.3 |
| 20260507071117 | 55 | 25 | 9.0 | 15.0 | 0.00 | 2.31 | 0.00 | 95 | 1011.2 |
| 20260507071024 | 55 | 35 | 8.0 | 15.0 | 0.00 | 2.31 | 0.00 | 95 | 1011.2 |
| 20260507070915 | 55 | 42 | 10.0 | 15.0 | 0.00 | 2.31 | 0.00 | 95 | 1011.2 |
| 20260507070822 | 55 | 9 | 10.0 | 15.0 | 0.00 | 2.31 | 0.00 | 95 | 1011.2 |
| 20260507070729 | 55 | 42 | 8.0 | 14.0 | 0.00 | 2.31 | 0.00 | 95 | 1011.2 |
| 20260507070637 | 55 | 45 | 7.0 | 14.0 | 0.00 | 2.31 | 0.00 | 95 | 1011.3 |
| 20260507070547 | 55 | 67 | 8.0 | 14.0 | 0.00 | 2.31 | 0.00 | 95 | 1011.3 |
| 20260507070323 | 55 | 31 | 9.0 | 14.0 | 0.00 | 2.31 | 0.00 | 95 | 1011.3 |
| 20260507070231 | 55 | 14 | 10.0 | 14.0 | 0.00 | 2.31 | 0.00 | 95 | 1011.3 |
| 20260507070116 | 55 | 29 | 8.0 | 13.0 | 0.00 | 2.31 | 0.00 | 95 | 1011.6 |
| 20260507070022 | 55 | 5 | 8.0 | 13.0 | 0.00 | 2.31 | 0.00 | 95 | 1011.6 |
| 20260507065930 | 55 | 360 | 8.0 | 13.0 | 0.00 | 2.31 | 0.00 | 95 | 1011.6 |
| 20260507065816 | 55 | 355 | 6.0 | 13.0 | 0.00 | 2.31 | 0.00 | 95 | 1011.7 |
| 20260507065743 | 55 | 355 | 5.0 | 13.0 | 0.00 | 2.31 | 0.00 | 95 | 1011.7 |
| 20260507065613 | 55 | 17 | 6.0 | 13.0 | 0.00 | 2.31 | 0.00 | 95 | 1011.7 |
| 20260507065521 | 55 | 20 | 7.0 | 15.0 | 0.00 | 2.31 | 0.00 | 95 | 1011.7 |
| 20260507065449 | 55 | 5 | 8.0 | 15.0 | 0.00 | 2.31 | 0.00 | 95 | 1011.9 |
| 20260507065317 | 55 | 39 | 9.0 | 15.0 | 0.00 | 2.31 | 0.00 | 95 | 1011.9 |
| 20260507065223 | 55 | 349 | 8.0 | 15.0 | 0.00 | 2.31 | 0.00 | 95 | 1011.9 |
| 20260507065131 | 55 | 10 | 8.0 | 15.0 | 0.00 | 2.31 | 0.00 | 95 | 1012.0 |
| 20260507065104 | 55 | 32 | 8.0 | 15.0 | 0.00 | 2.31 | 0.00 | 95 | 1012.0 |
| 20260507064817 | 55 | 17 | 9.0 | 15.0 | 0.00 | 2.31 | 0.00 | 95 | 1012.2 |
| 20260507064745 | 55 | 355 | 9.0 | 15.0 | 0.00 | 2.31 | 0.00 | 95 | 1012.2 |
| 20260507064610 | 55 | 5 | 8.0 | 14.0 | 0.00 | 2.31 | 0.00 | 95 | 1012.2 |
| 20260507064517 | 55 | 13 | 8.0 | 14.0 | 0.00 | 2.31 | 0.00 | 95 | 1012.2 |
| 20260507064429 | 55 | 355 | 8.0 | 14.0 | 0.00 | 2.31 | 0.00 | 95 | 1012.2 |
| 20260507064317 | 55 | 16 | 7.0 | 14.0 | 0.00 | 2.31 | 0.00 | 95 | 1012.1 |
| 20260507064242 | 55 | 355 | 8.0 | 12.0 | 0.00 | 2.31 | 0.00 | 95 | 1012.1 |
| 20260507064130 | 55 | 355 | 8.0 | 12.0 | 0.00 | 2.31 | 0.00 | 95 | 1012.2 |
| 20260507064016 | 55 | 45 | 7.0 | 14.0 | 0.00 | 2.31 | 0.00 | 95 | 1012.2 |
| 20260507063925 | 55 | 355 | 6.0 | 15.0 | 0.00 | 2.31 | 0.00 | 95 | 1012.2 |
| 20260507063837 | 55 | 360 | 6.0 | 15.0 | 0.00 | 2.31 | 0.00 | 95 | 1012.3 |
| 20260507063723 | 55 | 355 | 6.0 | 15.0 | 0.00 | 2.31 | 0.00 | 95 | 1012.3 |
| 20260507063651 | 55 | 350 | 7.0 | 15.0 | 0.00 | 2.31 | 0.00 | 95 | 1012.2 |
| 20260507063601 | 55 | 5 | 8.0 | 15.0 | 0.00 | 2.31 | 0.00 | 95 | 1012.2 |
| 20260507063334 | 55 | 5 | 9.0 | 15.0 | 0.00 | 2.31 | 0.00 | 95 | 1012.1 |
| 20260507063225 | 55 | 32 | 10.0 | 15.0 | 0.00 | 2.31 | 0.00 | 95 | 1012.1 |
| 20260507063112 | 55 | 24 | 10.0 | 15.0 | 0.00 | 2.31 | 0.00 | 95 | 1011.8 |
| 20260507063039 | 55 | 346 | 7.0 | 13.0 | 0.00 | 2.31 | 0.00 | 95 | 1011.7 |
| 20260507062925 | 55 | 360 | 7.0 | 13.0 | 0.00 | 2.31 | 0.00 | 95 | 1011.7 |
| 20260507062813 | 55 | 346 | 9.0 | 15.0 | 0.00 | 2.31 | 0.00 | 95 | 1011.3 |
| 20260507062721 | 55 | 34 | 8.0 | 15.0 | 0.00 | 2.31 | 0.00 | 95 | 1011.3 |
| 20260507062611 | 55 | 14 | 7.0 | 15.0 | 0.00 | 2.31 | 0.00 | 96 | 1011.2 |
| 20260507062518 | 55 | 355 | 7.0 | 15.0 | 0.00 | 2.31 | 0.00 | 96 | 1011.3 |
| 20260507062427 | 55 | 9 | 8.0 | 15.0 | 0.00 | 2.31 | 0.00 | 96 | 1011.3 |
| 20260507062315 | 55 | 15 | 8.0 | 15.0 | 0.00 | 2.31 | 0.00 | 96 | 1011.5 |
| 20260507062242 | 55 | 355 | 8.0 | 15.0 | 0.00 | 2.31 | 0.00 | 96 | 1011.5 |
| 20260507062149 | 55 | 24 | 8.0 | 15.0 | 0.00 | 2.31 | 0.00 | 96 | 1011.5 |
| 20260507062123 | 55 | 5 | 8.0 | 15.0 | 0.00 | 2.31 | 0.00 | 96 | 1011.6 |
| 20260507061835 | 55 | 16 | 8.0 | 15.0 | 0.00 | 2.31 | 0.00 | 96 | 1011.9 |
| 20260507061741 | 55 | 355 | 8.0 | 15.0 | 0.00 | 2.31 | 0.00 | 96 | 1011.9 |
| 20260507061629 | 55 | 20 | 9.0 | 15.0 | 0.00 | 2.31 | 0.00 | 96 | 1012.0 |
| 20260507061515 | 55 | 28 | 8.0 | 15.0 | 0.00 | 2.31 | 0.00 | 96 | 1012.2 |
| 20260507061423 | 55 | 5 | 7.0 | 14.0 | 0.00 | 2.31 | 0.00 | 96 | 1012.2 |
| 20260507061313 | 55 | 355 | 7.0 | 14.0 | 0.00 | 2.31 | 0.00 | 96 | 1012.2 |
| 20260507061221 | 55 | 43 | 8.0 | 14.0 | 0.00 | 2.31 | 0.00 | 96 | 1012.2 |
| 20260507061128 | 55 | 22 | 8.0 | 12.0 | 0.00 | 2.31 | 0.00 | 96 | 1012.2 |
| 20260507061015 | 55 | 42 | 6.0 | 12.0 | 0.00 | 2.31 | 0.00 | 96 | 1012.2 |
| 20260507060942 | 55 | 360 | 5.0 | 10.0 | 0.00 | 2.31 | 0.00 | 96 | 1012.2 |
| 20260507060849 | 55 | 11 | 5.0 | 10.0 | 0.00 | 2.31 | 0.00 | 96 | 1012.2 |
| 20260507060719 | 55 | 11 | 6.0 | 10.0 | 0.00 | 2.31 | 0.00 | 96 | 1012.2 |
| 20260507060626 | 55 | 348 | 6.0 | 12.0 | 0.00 | 2.31 | 0.00 | 96 | 1012.3 |
| 20260507060558 | 56 | 22 | 5.0 | 12.0 | 0.00 | 2.31 | 0.00 | 96 | 1012.4 |
| 20260507060311 | 56 | 355 | 6.0 | 12.0 | 0.00 | 2.31 | 0.00 | 96 | 1012.3 |
| 20260507060222 | 56 | 5 | 6.0 | 12.0 | 0.00 | 2.31 | 0.00 | 96 | 1012.3 |
| 20260507060126 | 56 | 5 | 5.0 | 12.0 | 0.00 | 2.31 | 0.00 | 96 | 1012.4 |
| 20260507060014 | 56 | 21 | 5.0 | 12.0 | 0.00 | 2.31 | 0.00 | 96 | 1012.5 |
| 20260507055942 | 56 | 340 | 7.0 | 12.0 | 0.00 | 2.31 | 0.00 | 96 | 1012.5 |
| 20260507055829 | 56 | 19 | 7.0 | 12.0 | 0.00 | 2.31 | 0.00 | 96 | 1012.6 |
| 20260507055715 | 56 | 9 | 8.0 | 12.0 | 0.00 | 2.31 | 0.00 | 96 | 1012.5 |
| 20260507055622 | 56 | 5 | 8.0 | 12.0 | 0.00 | 2.31 | 0.00 | 96 | 1012.5 |
| 20260507055513 | 56 | 11 | 6.0 | 12.0 | 0.00 | 2.31 | 0.00 | 96 | 1012.5 |
| 20260507055421 | 56 | 348 | 7.0 | 12.0 | 0.00 | 2.31 | 0.00 | 96 | 1012.5 |
| 20260507055329 | 56 | 22 | 7.0 | 12.0 | 0.00 | 2.31 | 0.00 | 96 | 1012.5 |
| 20260507055217 | 56 | 355 | 4.0 | 11.0 | 0.00 | 2.31 | 0.00 | 96 | 1012.6 |
| 20260507055124 | 56 | 355 | 4.0 | 10.0 | 0.00 | 2.31 | 0.00 | 96 | 1012.6 |
| 20260507055058 | 56 | 34 | 4.0 | 10.0 | 0.00 | 2.31 | 0.00 | 96 | 1012.7 |
| 20260507054832 | 56 | 17 | 4.0 | 10.0 | 0.00 | 2.31 | 0.00 | 96 | 1012.5 |
| 20260507054719 | 56 | 348 | 4.0 | 10.0 | 0.00 | 2.31 | 0.00 | 96 | 1012.5 |
| 20260507054626 | 56 | 345 | 5.0 | 10.0 | 0.00 | 2.31 | 0.00 | 96 | 1012.4 |
| 20260507054515 | 56 | 13 | 5.0 | 12.0 | 0.00 | 2.31 | 0.00 | 96 | 1012.7 |
| 20260507054426 | 56 | 9 | 6.0 | 12.0 | 0.00 | 2.31 | 0.00 | 96 | 1012.7 |
| 20260507054314 | 56 | 350 | 6.0 | 12.0 | 0.00 | 2.31 | 2.31 | 96 | 1012.7 |
| 20260507054243 | 56 | 355 | 5.0 | 12.0 | 0.00 | 2.31 | 2.31 | 96 | 1012.7 |
| 20260507054129 | 56 | 18 | 4.0 | 12.0 | 0.00 | 2.31 | 2.31 | 96 | 1012.7 |
| 20260507054017 | 56 | 345 | 3.0 | 12.0 | 0.00 | 2.31 | 2.31 | 96 | 1012.6 |
| 20260507053945 | 56 | 11 | 4.0 | 12.0 | 0.00 | 2.31 | 2.31 | 96 | 1012.6 |
| 20260507053817 | 56 | 16 | 6.0 | 12.0 | 0.00 | 2.31 | 2.31 | 96 | 1012.7 |
| 20260507053724 | 56 | 348 | 7.0 | 12.0 | 0.00 | 2.31 | 2.31 | 96 | 1012.7 |
| 20260507053632 | 56 | 30 | 6.0 | 12.0 | 0.00 | 2.31 | 2.31 | 96 | 1012.6 |
| 20260507053605 | 56 | 348 | 5.0 | 11.0 | 0.00 | 2.31 | 2.31 | 96 | 1012.5 |
| 20260507053322 | 56 | 25 | 6.0 | 11.0 | 0.00 | 2.31 | 2.31 | 96 | 1012.3 |
| 20260507053229 | 56 | 330 | 6.0 | 11.0 | 0.00 | 2.31 | 2.31 | 96 | 1012.3 |
| 20260507053136 | 56 | 9 | 5.0 | 11.0 | 0.00 | 2.31 | 2.31 | 96 | 1012.1 |
| 20260507053041 | 56 | 15 | 5.0 | 11.0 | 0.00 | 2.31 | 2.31 | 96 | 1012.1 |
| 20260507052928 | 56 | 355 | 5.0 | 11.0 | 0.00 | 2.31 | 2.31 | 96 | 1012.1 |
| 20260507052815 | 56 | 37 | 7.0 | 11.0 | 0.00 | 2.31 | 2.31 | 96 | 1012.1 |
| 20260507052723 | 56 | 34 | 7.0 | 11.0 | 0.00 | 2.31 | 2.31 | 96 | 1012.1 |
| 20260507052616 | 56 | 350 | 6.0 | 11.0 | 0.00 | 2.31 | 2.31 | 96 | 1012.3 |
| 20260507052543 | 56 | 9 | 7.0 | 11.0 | 0.00 | 2.31 | 2.31 | 96 | 1012.3 |
| 20260507052429 | 56 | 17 | 7.0 | 11.0 | 0.00 | 2.31 | 2.31 | 96 | 1012.3 |
| 20260507052337 | 56 | 360 | 5.0 | 11.0 | 0.00 | 2.31 | 2.31 | 96 | 1012.2 |
| 20260507052243 | 56 | 33 | 5.0 | 11.0 | 0.00 | 2.31 | 2.31 | 96 | 1012.2 |
| 20260507052129 | 56 | 5 | 5.0 | 10.0 | 0.00 | 2.31 | 2.31 | 96 | 1012.1 |
| 20260507052104 | 56 | 46 | 5.0 | 10.0 | 0.00 | 2.31 | 2.31 | 96 | 1012.1 |
| 20260507051817 | 56 | 19 | 6.0 | 10.0 | 0.00 | 2.31 | 2.31 | 96 | 1012.2 |
| 20260507051725 | 56 | 9 | 6.0 | 10.0 | 0.00 | 2.31 | 2.31 | 96 | 1012.2 |
| 20260507051611 | 56 | 21 | 5.0 | 10.0 | 0.00 | 2.31 | 2.31 | 96 | 1012.3 |
| 20260507051518 | 56 | 35 | 5.0 | 10.0 | 0.00 | 2.31 | 2.31 | 96 | 1012.3 |
| 20260507051429 | 56 | 15 | 5.0 | 10.0 | 0.00 | 2.31 | 2.31 | 96 | 1012.3 |
| 20260507051317 | 56 | 360 | 7.0 | 11.0 | 0.00 | 2.31 | 2.31 | 96 | 1012.4 |
| 20260507051225 | 56 | 31 | 5.0 | 11.0 | 0.00 | 2.31 | 2.31 | 96 | 1012.4 |
| 20260507051113 | 56 | 355 | 4.0 | 11.0 | 0.00 | 2.31 | 2.31 | 96 | 1012.4 |
| 20260507051040 | 56 | 15 | 5.0 | 11.0 | 0.00 | 2.31 | 2.31 | 96 | 1012.4 |
| 20260507050947 | 56 | 355 | 5.0 | 11.0 | 0.00 | 2.31 | 2.31 | 96 | 1012.4 |
| 20260507050818 | 56 | 5 | 6.0 | 11.0 | 0.00 | 2.31 | 2.31 | 96 | 1012.4 |
| 20260507050745 | 56 | 27 | 6.0 | 11.0 | 0.00 | 2.31 | 2.31 | 96 | 1012.4 |
| 20260507050631 | 56 | 360 | 7.0 | 11.0 | 0.00 | 2.31 | 2.31 | 96 | 1012.5 |
| 20260507050602 | 56 | 32 | 7.0 | 11.0 | 0.00 | 2.31 | 2.31 | 96 | 1012.5 |
| 20260507050316 | 56 | 5 | 7.0 | 10.0 | 0.00 | 2.31 | 2.31 | 96 | 1012.6 |
| 20260507050227 | 56 | 360 | 6.0 | 9.0 | 0.00 | 2.31 | 2.31 | 96 | 1012.6 |
| 20260507050114 | 56 | 345 | 5.0 | 8.0 | 0.00 | 2.31 | 2.31 | 96 | 1012.4 |
| 20260507050021 | 56 | 341 | 5.0 | 8.0 | 0.00 | 2.31 | 2.31 | 96 | 1012.6 |
| 20260507045929 | 56 | 323 | 6.0 | 8.0 | 0.00 | 2.31 | 2.31 | 96 | 1012.6 |
| 20260507045817 | 56 | 347 | 5.0 | 8.0 | 0.00 | 2.31 | 2.31 | 96 | 1012.4 |
| 20260507045729 | 56 | 21 | 4.0 | 9.0 | 0.00 | 2.31 | 2.31 | 96 | 1012.4 |
| 20260507045617 | 56 | 9 | 4.0 | 10.0 | 0.00 | 2.31 | 2.31 | 96 | 1012.3 |
| 20260507045525 | 56 | 360 | 4.0 | 10.0 | 0.00 | 2.31 | 2.31 | 96 | 1012.3 |
| 20260507045412 | 56 | 9 | 5.0 | 10.0 | 0.00 | 2.31 | 2.31 | 96 | 1012.4 |
| 20260507045320 | 56 | 5 | 5.0 | 10.0 | 0.00 | 2.31 | 2.31 | 96 | 1012.5 |
| 20260507045212 | 56 | 9 | 5.0 | 10.0 | 0.00 | 2.31 | 2.31 | 96 | 1012.6 |
| 20260507045138 | 56 | 333 | 5.0 | 10.0 | 0.00 | 2.31 | 2.31 | 96 | 1012.6 |
| 20260507045048 | 56 | 10 | 6.0 | 10.0 | 0.00 | 2.31 | 2.31 | 96 | 1012.6 |
| 20260507044822 | 56 | 327 | 6.0 | 10.0 | 0.00 | 2.31 | 2.31 | 96 | 1012.6 |
| 20260507044749 | 56 | 16 | 5.0 | 10.0 | 0.00 | 2.31 | 2.31 | 96 | 1012.7 |
| 20260507044635 | 56 | 360 | 6.0 | 10.0 | 0.00 | 2.31 | 2.31 | 96 | 1012.4 |
| 20260507044526 | 56 | 351 | 6.0 | 10.0 | 0.00 | 2.31 | 2.31 | 96 | 1012.4 |
| 20260507044413 | 56 | 47 | 5.0 | 10.0 | 0.00 | 2.31 | 2.31 | 96 | 1012.3 |
| 20260507044341 | 56 | 5 | 6.0 | 12.0 | 0.00 | 2.31 | 2.31 | 96 | 1012.3 |
| 20260507044248 | 56 | 350 | 6.0 | 12.0 | 0.00 | 2.31 | 2.31 | 96 | 1012.3 |
| 20260507044115 | 56 | 348 | 5.0 | 12.0 | 0.00 | 2.31 | 2.31 | 96 | 1012.4 |
| 20260507044022 | 56 | 349 | 6.0 | 12.0 | 0.00 | 2.31 | 2.31 | 96 | 1012.4 |
| 20260507043912 | 56 | 344 | 6.0 | 12.0 | 0.00 | 2.31 | 2.31 | 96 | 1012.5 |
| 20260507043819 | 56 | 355 | 5.0 | 12.0 | 0.00 | 2.31 | 2.31 | 96 | 1012.5 |
| 20260507043725 | 56 | 346 | 6.0 | 12.0 | 0.00 | 2.31 | 2.31 | 96 | 1012.5 |
| 20260507043652 | 56 | 351 | 7.0 | 12.0 | 0.00 | 2.31 | 2.31 | 96 | 1012.5 |
| 20260507043622 | 56 | 347 | 7.0 | 11.0 | 0.00 | 2.31 | 2.31 | 96 | 1012.4 |
| 20260507043334 | 56 | 336 | 7.0 | 11.0 | 0.00 | 2.31 | 2.31 | 96 | 1012.7 |
| 20260507043224 | 56 | 347 | 7.0 | 11.0 | 0.00 | 2.31 | 2.31 | 96 | 1012.7 |
| 20260507043131 | 56 | 343 | 7.0 | 11.0 | 0.00 | 2.31 | 2.31 | 96 | 1012.7 |
| 20260507043017 | 56 | 334 | 7.0 | 11.0 | 0.00 | 2.31 | 2.31 | 96 | 1012.7 |
| 20260507042923 | 56 | 334 | 8.0 | 11.0 | 0.00 | 2.31 | 2.31 | 96 | 1012.7 |
| 20260507042811 | 56 | 342 | 7.0 | 10.0 | 0.00 | 2.31 | 2.31 | 96 | 1012.5 |
| 20260507042718 | 56 | 360 | 6.0 | 10.0 | 0.00 | 2.31 | 2.31 | 96 | 1012.6 |
| 20260507042630 | 56 | 340 | 6.0 | 11.0 | 0.00 | 2.31 | 2.31 | 96 | 1012.6 |
| 20260507042517 | 56 | 355 | 4.0 | 11.0 | 0.00 | 2.31 | 2.31 | 96 | 1012.7 |
| 20260507042424 | 56 | 323 | 3.0 | 11.0 | 0.00 | 2.31 | 2.31 | 96 | 1012.7 |
| 20260507042312 | 56 | 355 | 3.0 | 11.0 | 0.00 | 2.31 | 2.31 | 96 | 1012.5 |
| 20260507042219 | 56 | 28 | 4.0 | 11.0 | 0.00 | 2.31 | 2.31 | 96 | 1012.4 |
| 20260507042146 | 56 | 355 | 6.0 | 11.0 | 0.00 | 2.31 | 2.31 | 96 | 1012.4 |
| 20260507042100 | 56 | 337 | 7.0 | 11.0 | 0.00 | 2.31 | 2.31 | 96 | 1012.4 |
| 20260507041813 | 56 | 25 | 5.0 | 11.0 | 0.01 | 2.31 | 2.31 | 96 | 1012.0 |
| 20260507041720 | 56 | 340 | 4.0 | 10.0 | 0.01 | 2.31 | 2.31 | 96 | 1012.0 |
| 20260507041627 | 56 | 23 | 4.0 | 10.0 | 0.01 | 2.31 | 2.31 | 96 | 1012.0 |
| 20260507041517 | 56 | 25 | 5.0 | 10.0 | 0.01 | 2.31 | 2.31 | 96 | 1012.0 |
| 20260507041425 | 56 | 21 | 6.0 | 10.0 | 0.01 | 2.31 | 2.31 | 96 | 1012.0 |
| 20260507041312 | 56 | 344 | 7.0 | 10.0 | 0.02 | 2.31 | 2.31 | 96 | 1012.1 |
| 20260507041221 | 56 | 11 | 7.0 | 10.0 | 0.02 | 2.31 | 2.31 | 96 | 1012.3 |
| 20260507041129 | 56 | 24 | 7.0 | 10.0 | 0.02 | 2.31 | 2.31 | 96 | 1012.3 |
| 20260507041020 | 56 | 37 | 6.0 | 10.0 | 0.03 | 2.31 | 2.31 | 96 | 1012.5 |
| 20260507040948 | 56 | 355 | 6.0 | 10.0 | 0.03 | 2.31 | 2.31 | 96 | 1012.5 |
| 20260507040815 | 56 | 360 | 5.0 | 10.0 | 0.04 | 2.31 | 2.31 | 96 | 1012.6 |
| 20260507040722 | 56 | 334 | 5.0 | 9.0 | 0.04 | 2.31 | 2.31 | 96 | 1012.6 |
| 20260507040610 | 56 | 337 | 6.0 | 9.0 | 0.04 | 2.31 | 2.31 | 96 | 1012.7 |
| 20260507040544 | 56 | 355 | 6.0 | 9.0 | 0.04 | 2.31 | 2.31 | 96 | 1012.7 |
| 20260507040318 | 56 | 5 | 6.0 | 9.0 | 0.04 | 2.31 | 2.31 | 96 | 1012.7 |
| 20260507040224 | 56 | 360 | 6.0 | 9.0 | 0.04 | 2.31 | 2.31 | 96 | 1012.7 |
| 20260507040111 | 56 | 342 | 6.0 | 9.0 | 0.04 | 2.31 | 2.31 | 96 | 1012.8 |
| 20260507040018 | 56 | 355 | 5.0 | 9.0 | 0.04 | 2.31 | 2.31 | 96 | 1012.8 |
| 20260507035925 | 56 | 328 | 5.0 | 9.0 | 0.04 | 2.31 | 2.31 | 96 | 1012.8 |
| 20260507035836 | 56 | 355 | 6.0 | 9.0 | 0.04 | 2.31 | 2.31 | 96 | 1012.5 |
| 20260507035722 | 56 | 18 | 6.0 | 10.0 | 0.04 | 2.31 | 2.31 | 96 | 1012.5 |
| 20260507035611 | 56 | 19 | 6.0 | 10.0 | 0.04 | 2.31 | 2.31 | 96 | 1012.3 |
| 20260507035518 | 56 | 9 | 6.0 | 10.0 | 0.04 | 2.31 | 2.31 | 96 | 1012.3 |
| 20260507035426 | 56 | 9 | 6.0 | 10.0 | 0.04 | 2.31 | 2.31 | 96 | 1012.3 |
| 20260507035315 | 56 | 10 | 6.0 | 11.0 | 0.04 | 2.31 | 2.31 | 96 | 1012.1 |
| 20260507035226 | 56 | 42 | 6.0 | 11.0 | 0.04 | 2.31 | 2.31 | 96 | 1012.1 |
| 20260507035134 | 56 | 10 | 6.0 | 11.0 | 0.04 | 2.31 | 2.31 | 96 | 1011.9 |
| 20260507035105 | 56 | 5 | 7.0 | 11.0 | 0.04 | 2.31 | 2.31 | 96 | 1012.0 |
| 20260507034819 | 56 | 31 | 6.0 | 12.0 | 0.04 | 2.31 | 2.31 | 96 | 1012.2 |
| 20260507034711 | 56 | 355 | 6.0 | 12.0 | 0.04 | 2.31 | 2.31 | 96 | 1012.2 |
| 20260507034619 | 56 | 347 | 6.0 | 12.0 | 0.04 | 2.31 | 2.31 | 96 | 1012.2 |
| 20260507034528 | 56 | 11 | 7.0 | 12.0 | 0.04 | 2.31 | 2.31 | 96 | 1012.2 |
| 20260507034415 | 56 | 5 | 6.0 | 12.0 | 0.04 | 2.31 | 2.31 | 96 | 1012.2 |
| 20260507034322 | 56 | 13 | 5.0 | 12.0 | 0.04 | 2.31 | 2.31 | 96 | 1012.2 |
| 20260507034229 | 56 | 22 | 6.0 | 12.0 | 0.04 | 2.31 | 2.31 | 96 | 1012.2 |
| 20260507034120 | 56 | 355 | 8.0 | 12.0 | 0.04 | 2.31 | 2.31 | 96 | 1012.2 |
| 20260507034027 | 56 | 19 | 7.0 | 12.0 | 0.04 | 2.31 | 2.31 | 96 | 1012.2 |
| 20260507033915 | 56 | 14 | 6.0 | 11.0 | 0.04 | 2.31 | 2.31 | 96 | 1012.3 |
| 20260507033823 | 56 | 5 | 5.0 | 10.0 | 0.04 | 2.31 | 2.31 | 96 | 1012.3 |
| 20260507033711 | 56 | 360 | 5.0 | 10.0 | 0.04 | 2.31 | 2.31 | 96 | 1012.4 |
| 20260507033622 | 56 | 351 | 6.0 | 10.0 | 0.04 | 2.31 | 2.31 | 96 | 1012.4 |
| 20260507033553 | 56 | 344 | 6.0 | 14.0 | 0.04 | 2.31 | 2.31 | 96 | 1012.4 |
| 20260507033327 | 56 | 344 | 6.0 | 14.0 | 0.05 | 2.31 | 2.31 | 96 | 1012.7 |
| 20260507033214 | 57 | 327 | 6.0 | 14.0 | 0.05 | 2.31 | 2.31 | 96 | 1012.8 |
| 20260507033122 | 57 | 5 | 6.0 | 14.0 | 0.05 | 2.31 | 2.31 | 96 | 1012.8 |
| 20260507033012 | 57 | 329 | 5.0 | 14.0 | 0.07 | 2.31 | 2.31 | 96 | 1012.9 |
| 20260507032919 | 57 | 346 | 6.0 | 14.0 | 0.08 | 2.31 | 2.31 | 96 | 1012.9 |
| 20260507032826 | 57 | 355 | 7.0 | 14.0 | 0.08 | 2.31 | 2.31 | 96 | 1012.9 |
| 20260507032713 | 57 | 360 | 8.0 | 14.0 | 0.08 | 2.31 | 2.31 | 96 | 1012.8 |
| 20260507032640 | 57 | 349 | 9.0 | 14.0 | 0.08 | 2.31 | 2.31 | 96 | 1012.8 |
| 20260507032527 | 57 | 340 | 7.0 | 13.0 | 0.08 | 2.31 | 2.31 | 96 | 1012.8 |
| 20260507032418 | 57 | 338 | 7.0 | 11.0 | 0.08 | 2.31 | 2.31 | 96 | 1012.6 |
| 20260507032345 | 57 | 360 | 7.0 | 13.0 | 0.08 | 2.31 | 2.31 | 96 | 1012.6 |
| 20260507032212 | 57 | 340 | 7.0 | 13.0 | 0.08 | 2.31 | 2.31 | 96 | 1012.2 |
| 20260507032119 | 57 | 340 | 7.0 | 13.0 | 0.08 | 2.31 | 2.31 | 96 | 1012.3 |
| 20260507032050 | 57 | 346 | 7.0 | 13.0 | 0.07 | 2.30 | 2.30 | 96 | 1012.3 |
| 20260507031828 | 57 | 339 | 6.0 | 13.0 | 0.07 | 2.30 | 2.30 | 96 | 1012.2 |
| 20260507031716 | 57 | 350 | 5.0 | 14.0 | 0.07 | 2.30 | 2.30 | 96 | 1012.2 |
| 20260507031622 | 57 | 355 | 7.0 | 14.0 | 0.07 | 2.30 | 2.30 | 96 | 1012.2 |
| 20260507031510 | 57 | 20 | 9.0 | 14.0 | 0.07 | 2.30 | 2.30 | 96 | 1012.0 |
| 20260507031419 | 57 | 20 | 9.0 | 14.0 | 0.07 | 2.30 | 2.30 | 96 | 1012.1 |
| 20260507031310 | 57 | 5 | 8.0 | 14.0 | 0.06 | 2.29 | 2.29 | 96 | 1012.0 |
| 20260507031218 | 57 | 345 | 8.0 | 14.0 | 0.06 | 2.29 | 2.29 | 96 | 1011.9 |
| 20260507031146 | 57 | 18 | 8.0 | 14.0 | 0.05 | 2.28 | 2.28 | 96 | 1011.9 |
| 20260507031033 | 57 | 13 | 9.0 | 14.0 | 0.05 | 2.28 | 2.28 | 96 | 1012.0 |
| 20260507030920 | 57 | 355 | 8.0 | 14.0 | 0.05 | 2.28 | 2.28 | 96 | 1012.3 |
| 20260507030828 | 57 | 19 | 8.0 | 12.0 | 0.04 | 2.27 | 2.27 | 96 | 1012.3 |
| 20260507030719 | 57 | 12 | 8.0 | 12.0 | 0.04 | 2.27 | 2.27 | 96 | 1012.3 |
| 20260507030626 | 57 | 38 | 8.0 | 12.0 | 0.04 | 2.27 | 2.27 | 96 | 1012.3 |
| 20260507030557 | 57 | 355 | 8.0 | 12.0 | 0.04 | 2.27 | 2.27 | 96 | 1012.3 |
| 20260507030311 | 57 | 20 | 8.0 | 12.0 | 0.04 | 2.27 | 2.27 | 96 | 1012.3 |
| 20260507030219 | 57 | 17 | 7.0 | 11.0 | 0.04 | 2.27 | 2.27 | 96 | 1012.3 |
| 20260507030130 | 57 | 323 | 6.0 | 12.0 | 0.04 | 2.27 | 2.27 | 96 | 1012.3 |
| 20260507030018 | 57 | 355 | 6.0 | 12.0 | 0.04 | 2.27 | 2.27 | 96 | 1012.2 |
| 20260507025946 | 57 | 41 | 6.0 | 12.0 | 0.04 | 2.27 | 2.27 | 96 | 1012.2 |
| 20260507025812 | 57 | 21 | 7.0 | 12.0 | 0.04 | 2.27 | 2.27 | 96 | 1012.0 |
| 20260507025718 | 57 | 355 | 7.0 | 12.0 | 0.04 | 2.27 | 2.27 | 96 | 1012.0 |
| 20260507025626 | 57 | 360 | 8.0 | 12.0 | 0.04 | 2.27 | 2.27 | 96 | 1012.0 |
| 20260507025517 | 57 | 12 | 8.0 | 12.0 | 0.04 | 2.27 | 2.27 | 96 | 1012.1 |
| 20260507025424 | 57 | 360 | 9.0 | 12.0 | 0.04 | 2.27 | 2.27 | 96 | 1012.1 |
| 20260507025311 | 57 | 338 | 9.0 | 12.0 | 0.04 | 2.27 | 2.27 | 96 | 1012.3 |
| 20260507025237 | 57 | 323 | 7.0 | 12.0 | 0.04 | 2.27 | 2.27 | 96 | 1012.3 |
| 20260507025124 | 57 | 5 | 7.0 | 11.0 | 0.04 | 2.27 | 2.27 | 96 | 1012.3 |
| 20260507025058 | 57 | 339 | 6.0 | 11.0 | 0.04 | 2.27 | 2.27 | 96 | 1012.4 |
| 20260507024811 | 57 | 336 | 6.0 | 11.0 | 0.04 | 2.27 | 2.27 | 96 | 1012.2 |
| 20260507024718 | 57 | 347 | 7.0 | 11.0 | 0.04 | 2.27 | 2.27 | 96 | 1012.2 |
| 20260507024626 | 57 | 5 | 7.0 | 11.0 | 0.04 | 2.27 | 2.27 | 96 | 1012.2 |
| 20260507024513 | 57 | 22 | 8.0 | 11.0 | 0.04 | 2.27 | 2.27 | 96 | 1012.1 |
| 20260507024444 | 57 | 19 | 8.0 | 11.0 | 0.04 | 2.27 | 2.27 | 96 | 1012.1 |
| 20260507024311 | 57 | 348 | 7.0 | 11.0 | 0.04 | 2.27 | 2.27 | 96 | 1012.2 |
| 20260507024220 | 57 | 350 | 6.0 | 11.0 | 0.04 | 2.27 | 2.27 | 96 | 1012.2 |
| 20260507024127 | 57 | 19 | 5.0 | 11.0 | 0.04 | 2.27 | 2.27 | 96 | 1012.2 |
| 20260507024015 | 57 | 348 | 5.0 | 11.0 | 0.04 | 2.27 | 2.27 | 96 | 1012.2 |
| 20260507023922 | 57 | 17 | 6.0 | 11.0 | 0.04 | 2.27 | 2.27 | 96 | 1012.2 |
| 20260507023815 | 57 | 5 | 7.0 | 11.0 | 0.04 | 2.27 | 2.27 | 96 | 1012.3 |
| 20260507023723 | 57 | 12 | 7.0 | 11.0 | 0.04 | 2.27 | 2.27 | 96 | 1012.3 |
| 20260507023630 | 58 | 350 | 6.0 | 11.0 | 0.04 | 2.27 | 2.27 | 96 | 1012.2 |
| 20260507023600 | 58 | 334 | 5.0 | 11.0 | 0.04 | 2.27 | 2.27 | 96 | 1012.3 |
| 20260507023318 | 58 | 323 | 4.0 | 10.0 | 0.03 | 2.26 | 2.26 | 96 | 1012.1 |
| 20260507023226 | 58 | 341 | 4.0 | 10.0 | 0.03 | 2.26 | 2.26 | 96 | 1012.1 |
| 20260507023113 | 58 | 355 | 4.0 | 10.0 | 0.03 | 2.26 | 2.26 | 96 | 1012.1 |
| 20260507023022 | 58 | 348 | 5.0 | 10.0 | 0.01 | 2.24 | 2.24 | 96 | 1012.1 |
| 20260507022929 | 58 | 334 | 5.0 | 10.0 | 0.00 | 2.23 | 2.23 | 96 | 1012.0 |
| 20260507022820 | 58 | 341 | 5.0 | 10.0 | 0.00 | 2.23 | 2.23 | 96 | 1012.1 |
| 20260507022747 | 58 | 348 | 6.0 | 10.0 | 0.00 | 2.23 | 2.23 | 96 | 1012.1 |
| 20260507022613 | 58 | 332 | 8.0 | 10.0 | 0.00 | 2.23 | 2.23 | 96 | 1012.3 |
| 20260507022541 | 58 | 339 | 8.0 | 10.0 | 0.00 | 2.23 | 2.23 | 96 | 1012.1 |
| 20260507022426 | 58 | 325 | 7.0 | 10.0 | 0.00 | 2.23 | 2.23 | 96 | 1012.1 |
| 20260507022311 | 58 | 334 | 6.0 | 9.0 | 0.00 | 2.23 | 2.23 | 96 | 1012.0 |
| 20260507022219 | 58 | 321 | 5.0 | 9.0 | 0.00 | 2.23 | 2.23 | 96 | 1012.1 |
| 20260507022132 | 58 | 348 | 5.0 | 8.0 | 0.00 | 2.23 | 2.23 | 96 | 1012.1 |
| 20260507022102 | 58 | 346 | 4.0 | 8.0 | 0.00 | 2.23 | 2.23 | 96 | 1012.0 |
| 20260507021815 | 58 | 355 | 3.0 | 8.0 | 0.00 | 2.23 | 2.23 | 96 | 1012.1 |
| 20260507021723 | 58 | 360 | 2.0 | 8.0 | 0.00 | 2.23 | 2.23 | 96 | 1012.1 |
| 20260507021615 | 58 | 15 | 2.0 | 8.0 | 0.00 | 2.23 | 2.23 | 96 | 1012.1 |
| 20260507021523 | 58 | 5 | 2.0 | 8.0 | 0.00 | 2.23 | 2.23 | 96 | 1012.1 |
| 20260507021412 | 58 | 18 | 3.0 | 8.0 | 0.00 | 2.23 | 2.23 | 96 | 1012.1 |
| 20260507021320 | 58 | 30 | 4.0 | 8.0 | 0.00 | 2.23 | 2.23 | 96 | 1012.0 |
| 20260507021226 | 58 | 9 | 3.0 | 8.0 | 0.00 | 2.23 | 2.23 | 96 | 1012.0 |
| 20260507021118 | 58 | 360 | 2.0 | 6.0 | 0.00 | 2.23 | 2.23 | 96 | 1011.9 |
| 20260507021026 | 58 | 26 | 2.0 | 6.0 | 0.00 | 2.23 | 2.23 | 96 | 1011.9 |
| 20260507020914 | 58 | 28 | 3.0 | 9.0 | 0.00 | 2.23 | 2.23 | 96 | 1011.8 |
| 20260507020822 | 58 | 21 | 4.0 | 9.0 | 0.00 | 2.23 | 2.23 | 96 | 1011.8 |
| 20260507020730 | 58 | 81 | 4.0 | 9.0 | 0.00 | 2.23 | 2.23 | 96 | 1011.7 |
| 20260507020638 | 58 | 43 | 3.0 | 9.0 | 0.00 | 2.23 | 2.23 | 96 | 1011.8 |
| 20260507020551 | 58 | 46 | 3.0 | 9.0 | 0.00 | 2.23 | 2.23 | 96 | 1011.8 |
| 20260507020325 | 58 | 46 | 3.0 | 9.0 | 0.00 | 2.23 | 2.23 | 96 | 1011.9 |
| 20260507020212 | 58 | 37 | 5.0 | 9.0 | 0.00 | 2.23 | 2.23 | 96 | 1012.0 |
| 20260507020120 | 58 | 23 | 6.0 | 9.0 | 0.00 | 2.23 | 2.23 | 96 | 1012.1 |
| 20260507020011 | 58 | 21 | 5.0 | 9.0 | 0.00 | 2.23 | 2.23 | 96 | 1012.1 |
| 20260507015938 | 58 | 31 | 4.0 | 9.0 | 0.00 | 2.23 | 2.23 | 96 | 1012.1 |
| 20260507015844 | 58 | 347 | 5.0 | 9.0 | 0.00 | 2.23 | 2.23 | 96 | 1012.1 |
| 20260507015750 | 58 | 355 | 5.0 | 8.0 | 0.00 | 2.23 | 2.23 | 96 | 1012.1 |
| 20260507015616 | 58 | 35 | 5.0 | 7.0 | 0.00 | 2.23 | 2.23 | 96 | 1012.1 |
| 20260507015524 | 58 | 342 | 5.0 | 8.0 | 0.00 | 2.23 | 2.23 | 96 | 1012.1 |
| 20260507015432 | 58 | 336 | 6.0 | 8.0 | 0.00 | 2.23 | 2.23 | 96 | 1012.0 |
| 20260507015317 | 58 | 348 | 5.0 | 8.0 | 0.00 | 2.23 | 2.23 | 96 | 1011.9 |
| 20260507015228 | 58 | 355 | 4.0 | 8.0 | 0.00 | 2.23 | 2.23 | 96 | 1011.9 |
| 20260507015114 | 58 | 20 | 5.0 | 10.0 | 0.00 | 2.23 | 2.23 | 96 | 1011.9 |
| 20260507015046 | 58 | 49 | 5.0 | 10.0 | 0.00 | 2.23 | 2.23 | 96 | 1011.9 |
| 20260507014820 | 58 | 21 | 4.0 | 10.0 | 0.00 | 2.23 | 2.23 | 96 | 1011.7 |
| 20260507014711 | 58 | 21 | 4.0 | 10.0 | 0.00 | 2.23 | 2.23 | 96 | 1011.6 |
| 20260507014638 | 58 | 5 | 4.0 | 10.0 | 0.00 | 2.23 | 2.23 | 96 | 1011.4 |
| 20260507014526 | 58 | 15 | 5.0 | 10.0 | 0.00 | 2.23 | 2.23 | 96 | 1011.4 |
| 20260507014433 | 58 | 22 | 6.0 | 10.0 | 0.00 | 2.23 | 2.23 | 96 | 1011.6 |
| 20260507014319 | 58 | 24 | 6.0 | 10.0 | 0.00 | 2.23 | 2.23 | 96 | 1011.7 |
| 20260507014226 | 58 | 5 | 5.0 | 10.0 | 0.00 | 2.23 | 2.23 | 96 | 1011.7 |
| 20260507014132 | 58 | 5 | 3.0 | 10.0 | 0.00 | 2.23 | 2.23 | 96 | 1011.8 |
| 20260507014043 | 58 | 11 | 3.0 | 10.0 | 0.00 | 2.23 | 2.23 | 96 | 1011.8 |
| 20260507013930 | 58 | 339 | 5.0 | 10.0 | 0.00 | 2.23 | 2.23 | 96 | 1011.7 |
| 20260507013818 | 58 | 27 | 5.0 | 10.0 | 0.00 | 2.23 | 2.23 | 96 | 1011.7 |
| 20260507013725 | 58 | 29 | 5.0 | 10.0 | 0.00 | 2.23 | 2.23 | 96 | 1011.7 |
| 20260507013634 | 59 | 5 | 4.0 | 10.0 | 0.00 | 2.23 | 2.23 | 96 | 1011.6 |
| 20260507013547 | 59 | 20 | 5.0 | 10.0 | 0.00 | 2.23 | 2.23 | 96 | 1011.6 |
| 20260507013322 | 59 | 355 | 5.0 | 10.0 | 0.00 | 2.23 | 2.23 | 96 | 1011.6 |
| 20260507013229 | 59 | 34 | 5.0 | 10.0 | 0.00 | 2.23 | 2.23 | 96 | 1011.6 |
| 20260507013117 | 59 | 5 | 4.0 | 8.0 | 0.00 | 2.23 | 2.23 | 96 | 1011.5 |
| 20260507013024 | 59 | 32 | 3.0 | 8.0 | 0.00 | 2.23 | 2.23 | 96 | 1011.5 |
| 20260507012915 | 59 | 48 | 3.0 | 8.0 | 0.00 | 2.23 | 2.23 | 96 | 1011.6 |
| 20260507012824 | 59 | 10 | 3.0 | 8.0 | 0.00 | 2.23 | 2.23 | 96 | 1011.6 |
| 20260507012711 | 58 | 19 | 4.0 | 8.0 | 0.00 | 2.23 | 2.23 | 96 | 1011.6 |
| 20260507012617 | 59 | 26 | 4.0 | 8.0 | 0.00 | 2.23 | 2.23 | 96 | 1011.5 |
| 20260507012524 | 59 | 28 | 4.0 | 8.0 | 0.00 | 2.23 | 2.23 | 96 | 1011.5 |
| 20260507012413 | 59 | 32 | 5.0 | 8.0 | 0.00 | 2.23 | 2.23 | 96 | 1011.4 |
| 20260507012323 | 59 | 40 | 6.0 | 8.0 | 0.00 | 2.23 | 2.23 | 96 | 1011.4 |
| 20260507012210 | 59 | 33 | 5.0 | 8.0 | 0.00 | 2.23 | 2.23 | 96 | 1011.5 |
| 20260507012119 | 58 | 23 | 5.0 | 8.0 | 0.00 | 2.23 | 2.23 | 96 | 1011.6 |
| 20260507012049 | 58 | 35 | 4.0 | 6.0 | 0.00 | 2.23 | 2.23 | 96 | 1011.6 |
| 20260507011828 | 58 | 35 | 3.0 | 6.0 | 0.00 | 2.23 | 2.23 | 96 | 1011.7 |
| 20260507011715 | 58 | 46 | 3.0 | 6.0 | 0.00 | 2.23 | 2.23 | 96 | 1011.9 |
| 20260507011624 | 58 | 346 | 4.0 | 6.0 | 0.00 | 2.23 | 2.23 | 96 | 1011.9 |
| 20260507011512 | 58 | 355 | 3.0 | 6.0 | 0.00 | 2.23 | 2.23 | 96 | 1011.8 |
| 20260507011440 | 58 | 19 | 2.0 | 6.0 | 0.00 | 2.23 | 2.23 | 96 | 1011.8 |
| 20260507011326 | 58 | 355 | 3.0 | 6.0 | 0.00 | 2.23 | 2.23 | 96 | 1011.8 |
| 20260507011219 | 58 | 355 | 3.0 | 6.0 | 0.00 | 2.23 | 2.23 | 96 | 1011.7 |
| 20260507011126 | 58 | 46 | 3.0 | 6.0 | 0.00 | 2.23 | 2.23 | 96 | 1011.7 |
| 20260507011034 | 59 | 44 | 4.0 | 7.0 | 0.00 | 2.23 | 2.23 | 96 | 1011.5 |
| 20260507010920 | 59 | 13 | 3.0 | 7.0 | 0.00 | 2.23 | 2.23 | 96 | 1011.6 |
| 20260507010828 | 59 | 355 | 4.0 | 7.0 | 0.00 | 2.23 | 2.23 | 96 | 1011.6 |
| 20260507010715 | 59 | 30 | 4.0 | 7.0 | 0.00 | 2.23 | 2.23 | 96 | 1011.5 |
| 20260507010627 | 59 | 54 | 4.0 | 9.0 | 0.00 | 2.23 | 2.23 | 96 | 1011.5 |
| 20260507010558 | 59 | 30 | 3.0 | 9.0 | 0.00 | 2.23 | 2.23 | 96 | 1011.5 |
| 20260507010312 | 59 | 17 | 4.0 | 9.0 | 0.00 | 2.23 | 2.23 | 96 | 1011.4 |
| 20260507010220 | 59 | 40 | 4.0 | 9.0 | 0.00 | 2.23 | 2.23 | 96 | 1011.3 |
| 20260507010111 | 59 | 360 | 4.0 | 9.0 | 0.00 | 2.23 | 2.23 | 96 | 1011.3 |
| 20260507010038 | 59 | 5 | 5.0 | 9.0 | 0.00 | 2.23 | 2.23 | 96 | 1011.4 |
| 20260507005943 | 59 | 5 | 5.0 | 9.0 | 0.00 | 2.23 | 2.23 | 96 | 1011.4 |
| 20260507005829 | 59 | 11 | 5.0 | 9.0 | 0.00 | 2.23 | 2.23 | 96 | 1011.4 |
| 20260507005717 | 59 | 17 | 4.0 | 8.0 | 0.00 | 2.23 | 2.23 | 96 | 1011.9 |
| 20260507005624 | 59 | 5 | 4.0 | 6.0 | 0.00 | 2.23 | 2.23 | 96 | 1011.9 |
| 20260507005515 | 59 | 9 | 4.0 | 6.0 | 0.00 | 2.23 | 2.23 | 96 | 1012.2 |
| 20260507005422 | 59 | 11 | 4.0 | 5.0 | 0.00 | 2.23 | 2.23 | 96 | 1012.2 |
| 20260507005330 | 59 | 339 | 4.0 | 5.0 | 0.00 | 2.23 | 2.23 | 96 | 1012.3 |
| 20260507005238 | 59 | 17 | 3.0 | 5.0 | 0.00 | 2.23 | 2.23 | 96 | 1012.2 |
| 20260507005144 | 59 | 333 | 2.0 | 5.0 | 0.00 | 2.23 | 2.23 | 96 | 1012.2 |
| 20260507005052 | 59 | 355 | 3.0 | 5.0 | 0.00 | 2.23 | 2.23 | 96 | 1012.2 |
| 20260507004850 | 59 | 32 | 3.0 | 5.0 | 0.00 | 2.23 | 2.23 | 96 | 1012.2 |
| 20260507004718 | 59 | 5 | 3.0 | 5.0 | 0.00 | 2.23 | 2.23 | 96 | 1012.2 |
| 20260507004625 | 59 | 19 | 3.0 | 5.0 | 0.00 | 2.23 | 2.23 | 96 | 1012.2 |
| 20260507004511 | 59 | 351 | 3.0 | 5.0 | 0.00 | 2.23 | 2.23 | 96 | 1012.3 |
| 20260507004419 | 59 | 21 | 2.0 | 5.0 | 0.00 | 2.23 | 2.23 | 96 | 1012.3 |
| 20260507004311 | 59 | 18 | 3.0 | 5.0 | 0.00 | 2.23 | 2.23 | 96 | 1012.2 |
| 20260507004218 | 59 | 12 | 3.0 | 5.0 | 0.00 | 2.23 | 2.23 | 96 | 1012.2 |
| 20260507004125 | 59 | 350 | 3.0 | 6.0 | 0.00 | 2.23 | 2.23 | 96 | 1012.2 |
| 20260507004012 | 59 | 17 | 3.0 | 7.0 | 0.00 | 2.23 | 2.23 | 96 | 1012.3 |
| 20260507003941 | 59 | 34 | 2.0 | 10.0 | 0.00 | 2.23 | 2.23 | 96 | 1012.3 |
| 20260507003827 | 59 | 32 | 2.0 | 10.0 | 0.00 | 2.23 | 2.23 | 96 | 1012.3 |
| 20260507003720 | 59 | 95 | 2.0 | 10.0 | 0.00 | 2.23 | 2.23 | 96 | 1012.2 |
| 20260507003626 | 59 | 85 | 2.0 | 10.0 | 0.00 | 2.23 | 2.23 | 96 | 1012.2 |
| 20260507003555 | 59 | 98 | 2.0 | 10.0 | 0.00 | 2.23 | 2.23 | 95 | 1012.3 |
| 20260507003330 | 59 | 69 | 4.0 | 10.0 | 0.00 | 2.23 | 2.23 | 95 | 1012.3 |
| 20260507003219 | 59 | 57 | 5.0 | 10.0 | 0.00 | 2.23 | 2.23 | 96 | 1012.3 |
| 20260507003129 | 59 | 67 | 5.0 | 10.0 | 0.00 | 2.23 | 2.23 | 96 | 1012.3 |
| 20260507003018 | 59 | 38 | 3.0 | 9.0 | 0.00 | 2.23 | 2.23 | 96 | 1012.2 |
| 20260507002925 | 59 | 36 | 5.0 | 9.0 | 0.00 | 2.23 | 2.23 | 96 | 1012.2 |
| 20260507002812 | 59 | 27 | 5.0 | 9.0 | 0.00 | 2.23 | 2.23 | 95 | 1012.2 |
| 20260507002740 | 59 | 10 | 4.0 | 10.0 | 0.00 | 2.23 | 2.23 | 95 | 1012.2 |
| 20260507002610 | 59 | 5 | 4.0 | 10.0 | 0.00 | 2.23 | 2.23 | 95 | 1012.2 |
| 20260507002537 | 59 | 360 | 5.0 | 11.0 | 0.00 | 2.23 | 2.23 | 95 | 1012.1 |
| 20260507002423 | 59 | 26 | 6.0 | 11.0 | 0.00 | 2.23 | 2.23 | 95 | 1012.1 |
| 20260507002311 | 59 | 22 | 6.0 | 11.0 | 0.00 | 2.23 | 2.23 | 95 | 1011.9 |
| 20260507002239 | 59 | 355 | 6.0 | 11.0 | 0.01 | 2.23 | 2.23 | 95 | 1012.0 |
| 20260507002125 | 59 | 5 | 6.0 | 11.0 | 0.01 | 2.23 | 2.23 | 95 | 1012.0 |
| 20260507002100 | 59 | 17 | 7.0 | 11.0 | 0.01 | 2.23 | 2.23 | 95 | 1011.9 |
| 20260507001813 | 59 | 33 | 6.0 | 11.0 | 0.01 | 2.23 | 2.23 | 95 | 1012.0 |
| 20260507001721 | 59 | 5 | 5.0 | 11.0 | 0.01 | 2.23 | 2.23 | 95 | 1012.0 |
| 20260507001629 | 59 | 360 | 5.0 | 11.0 | 0.01 | 2.23 | 2.23 | 95 | 1012.0 |
| 20260507001517 | 59 | 32 | 6.0 | 11.0 | 0.01 | 2.23 | 2.23 | 95 | 1012.1 |
| 20260507001429 | 59 | 34 | 6.0 | 11.0 | 0.01 | 2.23 | 2.23 | 95 | 1012.1 |
| 20260507001316 | 59 | 46 | 6.0 | 12.0 | 0.01 | 2.23 | 2.23 | 95 | 1012.2 |
| 20260507001245 | 60 | 355 | 5.0 | 12.0 | 0.01 | 2.23 | 2.23 | 95 | 1012.2 |
| 20260507001130 | 60 | 16 | 6.0 | 12.0 | 0.01 | 2.23 | 2.23 | 95 | 1012.2 |
| 20260507001038 | 60 | 12 | 8.0 | 12.0 | 0.01 | 2.23 | 2.23 | 95 | 1012.0 |
| 20260507000923 | 60 | 37 | 8.0 | 12.0 | 0.01 | 2.23 | 2.23 | 95 | 1012.0 |
| 20260507000832 | 60 | 12 | 7.0 | 12.0 | 0.01 | 2.23 | 2.23 | 95 | 1011.9 |
| 20260507000722 | 60 | 27 | 7.0 | 12.0 | 0.01 | 2.23 | 2.23 | 95 | 1011.9 |
| 20260507000649 | 60 | 355 | 7.0 | 12.0 | 0.01 | 2.23 | 2.23 | 95 | 1011.9 |
| 20260507000559 | 60 | 5 | 7.0 | 12.0 | 0.01 | 2.23 | 2.23 | 95 | 1011.9 |
| 20260507000314 | 60 | 37 | 7.0 | 11.0 | 0.01 | 2.23 | 2.23 | 96 | 1011.8 |
| 20260507000220 | 60 | 355 | 6.0 | 11.0 | 0.01 | 2.23 | 2.23 | 96 | 1011.9 |
| 20260507000130 | 60 | 30 | 7.0 | 11.0 | 0.01 | 2.23 | 2.23 | 96 | 1011.9 |
| 20260507000037 | 60 | 360 | 7.0 | 11.0 | 0.01 | 2.23 | 2.23 | 96 | 1012.0 |
| 20260506235923 | 60 | 34 | 7.0 | 11.0 | 0.01 | 2.23 | 2.23 | 96 | 1012.0 |
| 20260506235850 | 60 | 15 | 6.0 | 12.0 | 0.01 | 2.23 | 2.23 | 96 | 1012.0 |
| 20260506235717 | 60 | 11 | 6.0 | 13.0 | 0.01 | 2.23 | 2.23 | 96 | 1012.1 |
| 20260506235624 | 60 | 355 | 6.0 | 13.0 | 0.01 | 2.23 | 2.23 | 96 | 1012.1 |
| 20260506235516 | 61 | 340 | 6.0 | 14.0 | 0.01 | 2.23 | 2.23 | 96 | 1012.0 |
| 20260506235423 | 61 | 355 | 6.0 | 14.0 | 0.01 | 2.23 | 2.23 | 96 | 1012.0 |
| 20260506235311 | 61 | 355 | 6.0 | 14.0 | 0.01 | 2.23 | 2.23 | 95 | 1011.6 |
| 20260506235240 | 61 | 355 | 8.0 | 14.0 | 0.01 | 2.23 | 2.23 | 95 | 1011.7 |
| 20260506235127 | 61 | 13 | 9.0 | 14.0 | 0.01 | 2.23 | 2.23 | 95 | 1011.7 |
| 20260506235101 | 61 | 339 | 10.0 | 14.0 | 0.01 | 2.23 | 2.23 | 95 | 1011.7 |
| 20260506234813 | 61 | 323 | 9.0 | 14.0 | 0.03 | 2.23 | 2.23 | 96 | 1012.2 |
| 20260506234720 | 61 | 355 | 7.0 | 14.0 | 0.03 | 2.23 | 2.23 | 96 | 1012.2 |
| 20260506234627 | 61 | 350 | 6.0 | 13.0 | 0.04 | 2.23 | 2.23 | 96 | 1012.2 |
| 20260506234515 | 61 | 312 | 5.0 | 13.0 | 0.06 | 2.23 | 2.23 | 96 | 1012.1 |
| 20260506234423 | 61 | 320 | 7.0 | 13.0 | 0.06 | 2.23 | 2.23 | 96 | 1012.1 |
| 20260506234314 | 61 | 351 | 8.0 | 13.0 | 0.08 | 2.23 | 2.23 | 96 | 1012.3 |
| 20260506234221 | 61 | 342 | 8.0 | 13.0 | 0.08 | 2.23 | 2.23 | 96 | 1012.3 |
| 20260506234129 | 61 | 329 | 8.0 | 13.0 | 0.08 | 2.23 | 2.23 | 96 | 1012.3 |
| 20260506234016 | 61 | 349 | 7.0 | 11.0 | 0.08 | 2.23 | 2.23 | 96 | 1011.9 |
| 20260506233923 | 61 | 9 | 7.0 | 11.0 | 0.08 | 2.23 | 2.23 | 96 | 1011.9 |
| 20260506233815 | 61 | 17 | 8.0 | 11.0 | 0.09 | 2.23 | 2.23 | 96 | 1012.0 |
| 20260506233721 | 61 | 360 | 7.0 | 11.0 | 0.09 | 2.23 | 2.23 | 95 | 1012.0 |
| 20260506233628 | 61 | 355 | 6.0 | 11.0 | 0.09 | 2.23 | 2.23 | 95 | 1012.1 |
| 20260506233559 | 61 | 313 | 6.0 | 9.0 | 0.10 | 2.23 | 2.23 | 95 | 1012.2 |
| 20260506233313 | 61 | 323 | 5.0 | 9.0 | 0.12 | 2.23 | 2.23 | 96 | 1012.3 |
| 20260506233224 | 61 | 360 | 5.0 | 9.0 | 0.12 | 2.23 | 2.23 | 95 | 1012.3 |
| 20260506233111 | 62 | 5 | 5.0 | 9.0 | 0.15 | 2.23 | 2.23 | 95 | 1012.3 |
| 20260506233039 | 62 | 318 | 5.0 | 9.0 | 0.15 | 2.23 | 2.23 | 96 | 1012.3 |
| 20260506232924 | 62 | 317 | 6.0 | 9.0 | 0.15 | 2.23 | 2.23 | 95 | 1012.3 |
| 20260506232811 | 62 | 317 | 6.0 | 9.0 | 0.15 | 2.23 | 2.23 | 95 | 1012.1 |
| 20260506232739 | 62 | 317 | 5.0 | 9.0 | 0.15 | 2.23 | 2.23 | 96 | 1011.9 |
| 20260506232629 | 62 | 327 | 4.0 | 10.0 | 0.15 | 2.23 | 2.23 | 96 | 1011.9 |
| 20260506232536 | 62 | 329 | 4.0 | 10.0 | 0.15 | 2.23 | 2.23 | 95 | 1011.7 |
| 20260506232423 | 62 | 333 | 5.0 | 10.0 | 0.15 | 2.23 | 2.23 | 95 | 1011.7 |
| 20260506232310 | 62 | 325 | 5.0 | 10.0 | 0.16 | 2.23 | 2.23 | 95 | 1011.3 |
| 20260506232216 | 62 | 351 | 6.0 | 10.0 | 0.15 | 2.22 | 2.22 | 95 | 1011.3 |
| 20260506232124 | 62 | 346 | 5.0 | 10.0 | 0.15 | 2.22 | 2.22 | 95 | 1011.3 |
| 20260506232058 | 62 | 5 | 5.0 | 12.0 | 0.15 | 2.22 | 2.22 | 95 | 1011.3 |
| 20260506231812 | 62 | 350 | 5.0 | 13.0 | 0.15 | 2.22 | 2.22 | 95 | 1011.4 |
| 20260506231720 | 62 | 346 | 6.0 | 13.0 | 0.15 | 2.22 | 2.22 | 95 | 1011.4 |
| 20260506231627 | 62 | 5 | 5.0 | 13.0 | 0.15 | 2.22 | 2.22 | 95 | 1011.4 |
| 20260506231518 | 63 | 31 | 5.0 | 13.0 | 0.15 | 2.22 | 2.22 | 95 | 1011.4 |
| 20260506231425 | 63 | 343 | 5.0 | 13.0 | 0.15 | 2.22 | 2.22 | 95 | 1011.4 |
| 20260506231333 | 63 | 19 | 7.0 | 13.0 | 0.15 | 2.22 | 2.22 | 95 | 1011.4 |
| 20260506231220 | 63 | 9 | 8.0 | 13.0 | 0.15 | 2.22 | 2.22 | 95 | 1011.6 |
| 20260506231127 | 63 | 22 | 9.0 | 16.0 | 0.15 | 2.22 | 2.22 | 95 | 1011.6 |
| 20260506231014 | 63 | 41 | 10.0 | 16.0 | 0.15 | 2.22 | 2.22 | 95 | 1011.6 |
| 20260506230926 | 63 | 17 | 9.0 | 16.0 | 0.15 | 2.22 | 2.22 | 95 | 1011.6 |
| 20260506230813 | 64 | 36 | 7.0 | 16.0 | 0.15 | 2.22 | 2.22 | 95 | 1011.7 |
| 20260506230720 | 64 | 29 | 6.0 | 16.0 | 0.15 | 2.22 | 2.22 | 96 | 1011.8 |
| 20260506230649 | 64 | 22 | 8.0 | 16.0 | 0.15 | 2.22 | 2.22 | 96 | 1011.8 |
| 20260506230559 | 64 | 19 | 9.0 | 16.0 | 0.15 | 2.22 | 2.22 | 96 | 1011.8 |
| 20260506230316 | 64 | 5 | 8.0 | 16.0 | 0.15 | 2.22 | 2.22 | 96 | 1012.0 |
| 20260506230243 | 64 | 323 | 6.0 | 12.0 | 0.15 | 2.22 | 2.22 | 96 | 1012.0 |
| 20260506230110 | 64 | 338 | 7.0 | 12.0 | 0.15 | 2.22 | 2.22 | 96 | 1012.0 |
| 20260506230018 | 64 | 344 | 9.0 | 12.0 | 0.15 | 2.22 | 2.22 | 96 | 1012.0 |
| 20260506225926 | 64 | 332 | 9.0 | 12.0 | 0.15 | 2.22 | 2.22 | 96 | 1012.0 |
| 20260506225834 | 64 | 345 | 8.0 | 13.0 | 0.15 | 2.22 | 2.22 | 96 | 1011.8 |
| 20260506225724 | 64 | 346 | 7.0 | 14.0 | 0.15 | 2.22 | 2.22 | 96 | 1011.8 |
| 20260506225612 | 64 | 338 | 8.0 | 14.0 | 0.15 | 2.22 | 2.22 | 96 | 1011.9 |
| 20260506225519 | 65 | 342 | 8.0 | 14.0 | 0.15 | 2.22 | 2.22 | 96 | 1011.8 |
| 20260506225427 | 65 | 342 | 8.0 | 14.0 | 0.15 | 2.22 | 2.22 | 96 | 1011.8 |
| 20260506225313 | 65 | 355 | 8.0 | 14.0 | 0.15 | 2.22 | 2.22 | 96 | 1011.6 |
| 20260506225221 | 65 | 320 | 9.0 | 14.0 | 0.15 | 2.22 | 2.22 | 96 | 1011.7 |
| 20260506225133 | 65 | 355 | 10.0 | 14.0 | 0.15 | 2.22 | 2.22 | 96 | 1011.7 |
| 20260506225103 | 65 | 321 | 10.0 | 14.0 | 0.14 | 2.21 | 2.21 | 96 | 1011.6 |
| 20260506224817 | 65 | 345 | 9.0 | 13.0 | 0.13 | 2.20 | 2.20 | 96 | 1011.5 |
| 20260506224725 | 65 | 360 | 8.0 | 12.0 | 0.12 | 2.19 | 2.19 | 96 | 1011.5 |
| 20260506224616 | 65 | 331 | 8.0 | 11.0 | 0.10 | 2.17 | 2.17 | 96 | 1011.4 |
| 20260506224523 | 65 | 338 | 8.0 | 11.0 | 0.10 | 2.17 | 2.17 | 96 | 1011.4 |
| 20260506224411 | 65 | 321 | 7.0 | 11.0 | 0.09 | 2.16 | 2.16 | 96 | 1011.4 |
| 20260506224320 | 65 | 355 | 7.0 | 11.0 | 0.08 | 2.15 | 2.15 | 96 | 1011.5 |
| 20260506224227 | 66 | 335 | 6.0 | 11.0 | 0.08 | 2.15 | 2.15 | 96 | 1011.5 |
| 20260506224118 | 65 | 326 | 6.0 | 9.0 | 0.09 | 2.15 | 2.15 | 96 | 1011.4 |
| 20260506224026 | 66 | 324 | 5.0 | 9.0 | 0.09 | 2.15 | 2.15 | 96 | 1011.4 |
| 20260506223913 | 66 | 332 | 5.0 | 9.0 | 0.09 | 2.14 | 2.14 | 96 | 1011.3 |
| 20260506223820 | 66 | 313 | 5.0 | 9.0 | 0.09 | 2.14 | 2.14 | 96 | 1011.4 |
| 20260506223728 | 66 | 337 | 5.0 | 10.0 | 0.10 | 2.14 | 2.14 | 96 | 1011.4 |
| 20260506223615 | 66 | 317 | 5.0 | 10.0 | 0.10 | 2.13 | 2.13 | 96 | 1011.4 |
| 20260506223549 | 66 | 309 | 5.0 | 12.0 | 0.09 | 2.12 | 2.12 | 96 | 1011.4 |
| 20260506223323 | 66 | 336 | 5.0 | 12.0 | 0.09 | 2.11 | 2.11 | 96 | 1011.5 |
| 20260506223210 | 66 | 335 | 5.0 | 12.0 | 0.07 | 2.09 | 2.09 | 96 | 1011.5 |
| 20260506223138 | 66 | 332 | 4.0 | 12.0 | 0.06 | 2.08 | 2.08 | 96 | 1011.4 |
| 20260506223025 | 66 | 325 | 5.0 | 12.0 | 0.06 | 2.08 | 2.08 | 96 | 1011.4 |
| 20260506222936 | 66 | 348 | 7.0 | 12.0 | 0.07 | 2.08 | 2.08 | 97 | 1011.4 |
| 20260506222823 | 66 | 309 | 6.0 | 12.0 | 0.07 | 2.08 | 2.08 | 97 | 1011.4 |
| 20260506222710 | 66 | 328 | 6.0 | 12.0 | 0.07 | 2.08 | 2.08 | 97 | 1011.3 |
| 20260506222638 | 66 | 309 | 6.0 | 10.0 | 0.07 | 2.08 | 2.08 | 97 | 1011.5 |
| 20260506222544 | 66 | 303 | 7.0 | 10.0 | 0.07 | 2.08 | 2.08 | 97 | 1011.5 |
| 20260506222411 | 66 | 338 | 5.0 | 10.0 | 0.06 | 2.07 | 2.07 | 97 | 1011.4 |
| 20260506222322 | 66 | 316 | 4.0 | 10.0 | 0.06 | 2.07 | 2.07 | 97 | 1011.4 |
| 20260506222228 | 66 | 342 | 3.0 | 9.0 | 0.06 | 2.07 | 2.07 | 97 | 1011.3 |
| 20260506222136 | 66 | 328 | 3.0 | 9.0 | 0.06 | 2.07 | 2.07 | 97 | 1011.3 |
| 20260506222045 | 66 | 317 | 3.0 | 9.0 | 0.06 | 2.07 | 2.07 | 97 | 1011.3 |
| 20260506221820 | 66 | 302 | 4.0 | 9.0 | 0.06 | 2.07 | 2.07 | 97 | 1011.2 |
| 20260506221711 | 66 | 309 | 5.0 | 9.0 | 0.06 | 2.07 | 2.07 | 97 | 1011.3 |
| 20260506221619 | 66 | 323 | 4.0 | 9.0 | 0.06 | 2.07 | 2.07 | 97 | 1011.3 |
| 20260506221527 | 66 | 321 | 4.0 | 8.0 | 0.06 | 2.07 | 2.07 | 97 | 1011.3 |
| 20260506221415 | 66 | 325 | 3.0 | 6.0 | 0.07 | 2.07 | 2.07 | 97 | 1011.2 |
| 20260506221322 | 66 | 315 | 3.0 | 4.0 | 0.07 | 2.07 | 2.07 | 97 | 1011.2 |
| 20260506221250 | 66 | 323 | 3.0 | 4.0 | 0.07 | 2.07 | 2.07 | 97 | 1011.2 |
| 20260506221121 | 66 | 319 | 3.0 | 4.0 | 0.07 | 2.07 | 2.07 | 97 | 1011.1 |
| 20260506221028 | 66 | 325 | 3.0 | 4.0 | 0.07 | 2.07 | 2.07 | 97 | 1011.0 |
| 20260506220915 | 66 | 355 | 3.0 | 4.0 | 0.09 | 2.07 | 2.07 | 97 | 1011.2 |
| 20260506220823 | 66 | 341 | 2.0 | 4.0 | 0.09 | 2.07 | 2.07 | 97 | 1011.2 |
| 20260506220710 | 66 | 319 | 2.0 | 3.0 | 0.09 | 2.07 | 2.07 | 97 | 1011.2 |
| 20260506220639 | 66 | 323 | 1.0 | 3.0 | 0.09 | 2.07 | 2.07 | 97 | 1011.2 |
| 20260506220554 | 66 | 329 | 1.0 | 3.0 | 0.09 | 2.07 | 2.07 | 97 | 1011.2 |
| 20260506220328 | 66 | 301 | 0.0 | 3.0 | 0.10 | 2.07 | 2.07 | 97 | 1011.2 |
| 20260506220216 | 66 | 317 | 0.0 | 0.0 | 0.15 | 2.07 | 2.07 | 97 | 1011.1 |
| 20260506220144 | 66 | 360 | 0.0 | 0.0 | 0.15 | 2.07 | 2.07 | 97 | 1011.1 |
| 20260506220011 | 66 | 360 | 0.0 | 0.0 | 0.16 | 2.07 | 2.07 | 97 | 1011.2 |
| 20260506215922 | 66 | 360 | 0.0 | 0.0 | 0.16 | 2.07 | 2.07 | 97 | 1011.2 |
| 20260506215810 | 66 | 360 | 0.0 | 0.0 | 0.19 | 2.07 | 2.07 | 97 | 1011.1 |
| 20260506215718 | 66 | 360 | 0.0 | 0.0 | 0.23 | 2.07 | 2.07 | 97 | 1011.1 |
| 20260506215624 | 66 | 360 | 0.0 | 0.0 | 0.23 | 2.07 | 2.07 | 97 | 1011.1 |
| 20260506215512 | 66 | 360 | 0.0 | 0.0 | 0.24 | 2.07 | 2.07 | 97 | 1011.1 |
| 20260506215422 | 66 | 360 | 0.0 | 0.0 | 0.24 | 2.07 | 2.07 | 97 | 1011.1 |
| 20260506215329 | 66 | 360 | 0.0 | 0.0 | 0.25 | 2.07 | 2.07 | 97 | 1010.9 |
| 20260506215217 | 66 | 360 | 0.0 | 0.0 | 0.25 | 2.07 | 2.07 | 97 | 1010.7 |
| 20260506215124 | 66 | 360 | 0.0 | 3.0 | 0.25 | 2.07 | 2.07 | 97 | 1010.7 |
| 20260506215054 | 66 | 360 | 0.0 | 3.0 | 0.25 | 2.07 | 2.07 | 97 | 1010.7 |
| 20260506214811 | 66 | 360 | 0.0 | 3.0 | 0.25 | 2.07 | 2.07 | 97 | 1010.8 |
| 20260506214718 | 66 | 360 | 0.0 | 3.0 | 0.26 | 2.07 | 2.07 | 97 | 1010.7 |
| 20260506214624 | 66 | 360 | 0.0 | 3.0 | 0.26 | 2.07 | 2.07 | 97 | 1010.7 |
| 20260506214531 | 66 | 360 | 0.0 | 3.0 | 0.26 | 2.07 | 2.07 | 97 | 1010.5 |
| 20260506214418 | 66 | 360 | 0.0 | 3.0 | 0.27 | 2.07 | 2.07 | 97 | 1010.5 |
| 20260506214326 | 66 | 360 | 1.0 | 3.0 | 0.27 | 2.07 | 2.07 | 97 | 1010.5 |
| 20260506214217 | 66 | 360 | 1.0 | 2.0 | 0.27 | 2.07 | 2.07 | 97 | 1010.4 |
| 20260506214124 | 66 | 360 | 1.0 | 2.0 | 0.26 | 2.06 | 2.06 | 97 | 1010.4 |
| 20260506214011 | 66 | 360 | 1.0 | 2.0 | 0.25 | 2.05 | 2.05 | 97 | 1010.5 |
| 20260506213920 | 66 | 360 | 0.0 | 3.0 | 0.26 | 2.05 | 2.05 | 97 | 1010.6 |
| 20260506213828 | 66 | 360 | 0.0 | 3.0 | 0.25 | 2.04 | 2.04 | 97 | 1010.6 |
| 20260506213718 | 66 | 360 | 0.0 | 3.0 | 0.28 | 2.03 | 2.03 | 96 | 1010.6 |
| 20260506213556 | 66 | 360 | 0.0 | 3.0 | 0.28 | 2.03 | 2.03 | 97 | 1010.6 |
| 20260506213328 | 66 | 360 | 0.0 | 3.0 | 0.27 | 2.02 | 2.02 | 97 | 1010.7 |
| 20260506213217 | 66 | 360 | 1.0 | 3.0 | 0.27 | 2.02 | 2.02 | 97 | 1010.8 |
| 20260506213150 | 66 | 360 | 1.0 | 3.0 | 0.27 | 2.02 | 2.02 | 97 | 1010.8 |
| 20260506213017 | 66 | 360 | 2.0 | 3.0 | 0.27 | 2.01 | 2.01 | 96 | 1010.8 |
| 20260506212925 | 66 | 360 | 1.0 | 3.0 | 0.27 | 2.01 | 2.01 | 97 | 1010.8 |
| 20260506212831 | 66 | 360 | 1.0 | 3.0 | 0.27 | 2.01 | 2.01 | 97 | 1010.8 |
| 20260506212717 | 66 | 360 | 1.0 | 3.0 | 0.28 | 2.01 | 2.01 | 97 | 1010.7 |
| 20260506212624 | 66 | 360 | 1.0 | 3.0 | 0.28 | 2.01 | 2.01 | 97 | 1010.7 |
| 20260506212530 | 66 | 360 | 1.0 | 3.0 | 0.29 | 2.01 | 2.01 | 97 | 1010.6 |
| 20260506212420 | 66 | 360 | 2.0 | 3.0 | 0.30 | 2.01 | 2.01 | 97 | 1010.5 |
| 20260506212329 | 66 | 360 | 2.0 | 3.0 | 0.31 | 2.01 | 2.01 | 97 | 1010.5 |
| 20260506212216 | 66 | 20 | 2.0 | 3.0 | 0.33 | 2.01 | 2.01 | 97 | 1010.4 |
| 20260506212123 | 65 | 355 | 2.0 | 3.0 | 0.33 | 2.01 | 2.01 | 97 | 1010.4 |
| 20260506212057 | 65 | 355 | 2.0 | 3.0 | 0.39 | 2.01 | 2.01 | 97 | 1010.5 |
| 20260506211811 | 65 | 360 | 2.0 | 3.0 | 0.45 | 2.01 | 2.01 | 97 | 1010.4 |
| 20260506211719 | 65 | 336 | 1.0 | 3.0 | 0.46 | 2.01 | 2.01 | 97 | 1010.4 |
| 20260506211627 | 65 | 336 | 1.0 | 3.0 | 0.46 | 2.01 | 2.01 | 97 | 1010.4 |
| 20260506211514 | 65 | 336 | 2.0 | 3.0 | 0.52 | 2.00 | 2.00 | 97 | 1010.5 |
| 20260506211421 | 65 | 355 | 2.0 | 3.0 | 0.52 | 2.00 | 2.00 | 97 | 1010.5 |
| 20260506211313 | 65 | 355 | 2.0 | 3.0 | 0.55 | 2.00 | 2.00 | 97 | 1010.5 |
| 20260506211221 | 65 | 355 | 2.0 | 3.0 | 0.55 | 2.00 | 2.00 | 97 | 1010.5 |
| 20260506211129 | 65 | 355 | 1.0 | 2.0 | 0.55 | 2.00 | 2.00 | 97 | 1010.5 |
| 20260506211037 | 65 | 355 | 1.0 | 2.0 | 0.55 | 1.99 | 1.99 | 96 | 1010.4 |
| 20260506210923 | 65 | 40 | 1.0 | 2.0 | 0.54 | 1.98 | 1.98 | 96 | 1010.4 |
| 20260506210815 | 65 | 40 | 1.0 | 2.0 | 0.54 | 1.98 | 1.98 | 97 | 1010.4 |
| 20260506210721 | 65 | 40 | 1.0 | 3.0 | 0.54 | 1.98 | 1.98 | 97 | 1010.4 |
| 20260506210629 | 65 | 40 | 0.0 | 3.0 | 0.55 | 1.98 | 1.98 | 97 | 1010.4 |
| 20260506210559 | 65 | 40 | 0.0 | 3.0 | 0.55 | 1.97 | 1.97 | 97 | 1010.3 |
| 20260506210312 | 65 | 219 | 0.0 | 3.0 | 0.52 | 1.94 | 1.94 | 97 | 1010.9 |
| 20260506210239 | 65 | 219 | 1.0 | 3.0 | 0.50 | 1.92 | 1.92 | 97 | 1010.9 |
| 20260506210130 | 65 | 219 | 1.0 | 3.0 | 0.50 | 1.92 | 1.92 | 97 | 1010.9 |
| 20260506210017 | 65 | 274 | 1.0 | 3.0 | 0.49 | 1.91 | 1.91 | 97 | 1010.8 |
| 20260506205925 | 65 | 257 | 1.0 | 3.0 | 0.47 | 1.89 | 1.89 | 97 | 1010.8 |
| 20260506205813 | 65 | 263 | 1.0 | 3.0 | 0.44 | 1.86 | 1.86 | 97 | 1010.7 |
| 20260506205721 | 65 | 264 | 1.0 | 2.0 | 0.42 | 1.84 | 1.84 | 96 | 1010.7 |
| 20260506205613 | 65 | 42 | 0.0 | 2.0 | 0.42 | 1.84 | 1.84 | 96 | 1010.6 |
| 20260506205522 | 65 | 28 | 0.0 | 3.0 | 0.41 | 1.83 | 1.83 | 96 | 1010.6 |
| 20260506205428 | 65 | 24 | 0.0 | 3.0 | 0.41 | 1.82 | 1.82 | 96 | 1010.4 |
| 20260506205315 | 65 | 24 | 0.0 | 3.0 | 0.41 | 1.82 | 1.82 | 96 | 1010.4 |
| 20260506205242 | 65 | 24 | 0.0 | 3.0 | 0.41 | 1.82 | 1.82 | 96 | 1010.4 |
| 20260506205129 | 65 | 24 | 1.0 | 3.0 | 0.41 | 1.82 | 1.82 | 96 | 1010.3 |
| 20260506205103 | 65 | 24 | 1.0 | 3.0 | 0.41 | 1.82 | 1.82 | 96 | 1010.4 |
| 20260506204818 | 65 | 10 | 2.0 | 3.0 | 0.41 | 1.82 | 1.82 | 96 | 1010.2 |
| 20260506204725 | 65 | 11 | 1.0 | 3.0 | 0.40 | 1.81 | 1.81 | 96 | 1010.2 |
| 20260506204611 | 65 | 50 | 1.0 | 3.0 | 0.40 | 1.81 | 1.81 | 96 | 1010.2 |
| 20260506204524 | 65 | 50 | 0.0 | 3.0 | 0.40 | 1.81 | 1.81 | 96 | 1010.2 |
| 20260506204412 | 65 | 50 | 1.0 | 3.0 | 0.39 | 1.80 | 1.80 | 96 | 1010.2 |
| 20260506204320 | 65 | 50 | 1.0 | 3.0 | 0.39 | 1.80 | 1.80 | 96 | 1010.2 |
| 20260506204226 | 65 | 50 | 2.0 | 3.0 | 0.39 | 1.80 | 1.80 | 96 | 1010.2 |
| 20260506204115 | 65 | 50 | 1.0 | 3.0 | 0.39 | 1.80 | 1.80 | 96 | 1010.3 |
| 20260506204042 | 65 | 50 | 0.0 | 3.0 | 0.39 | 1.80 | 1.80 | 96 | 1010.3 |
| 20260506203931 | 65 | 50 | 0.0 | 3.0 | 0.38 | 1.79 | 1.79 | 96 | 1010.4 |
| 20260506203816 | 65 | 50 | 0.0 | 3.0 | 0.35 | 1.76 | 1.76 | 96 | 1010.3 |
| 20260506203725 | 65 | 50 | 1.0 | 4.0 | 0.34 | 1.75 | 1.75 | 96 | 1010.3 |
| 20260506203632 | 65 | 50 | 1.0 | 4.0 | 0.34 | 1.75 | 1.75 | 96 | 1010.4 |
| 20260506203602 | 65 | 50 | 1.0 | 4.0 | 0.34 | 1.75 | 1.75 | 96 | 1010.3 |
| 20260506203319 | 65 | 40 | 1.0 | 4.0 | 0.34 | 1.75 | 1.75 | 96 | 1010.3 |
| 20260506203247 | 65 | 55 | 1.0 | 4.0 | 0.34 | 1.75 | 1.75 | 96 | 1010.3 |
| 20260506203113 | 65 | 42 | 1.0 | 4.0 | 0.34 | 1.75 | 1.75 | 97 | 1010.5 |
| 20260506203021 | 65 | 34 | 1.0 | 4.0 | 0.33 | 1.74 | 1.74 | 96 | 1010.5 |
| 20260506202948 | 65 | 27 | 1.0 | 4.0 | 0.33 | 1.74 | 1.74 | 96 | 1010.4 |
| 20260506202814 | 65 | 36 | 2.0 | 4.0 | 0.33 | 1.74 | 1.74 | 96 | 1010.6 |
| 20260506202726 | 65 | 5 | 2.0 | 4.0 | 0.33 | 1.74 | 1.74 | 96 | 1010.6 |
| 20260506202635 | 65 | 5 | 3.0 | 4.0 | 0.32 | 1.72 | 1.72 | 96 | 1010.7 |
| 20260506202520 | 65 | 355 | 2.0 | 3.0 | 0.31 | 1.71 | 1.71 | 96 | 1010.7 |
| 20260506202427 | 65 | 5 | 2.0 | 3.0 | 0.30 | 1.70 | 1.70 | 96 | 1010.8 |
| 20260506202314 | 65 | 345 | 2.0 | 3.0 | 0.29 | 1.69 | 1.69 | 96 | 1010.9 |
| 20260506202222 | 65 | 10 | 2.0 | 3.0 | 0.28 | 1.68 | 1.68 | 96 | 1010.9 |
| 20260506202128 | 65 | 344 | 2.0 | 3.0 | 0.27 | 1.67 | 1.67 | 96 | 1011.0 |
| 20260506202103 | 65 | 327 | 2.0 | 3.0 | 0.22 | 1.62 | 1.62 | 96 | 1011.1 |
| 20260506201817 | 65 | 276 | 1.0 | 3.0 | 0.17 | 1.56 | 1.56 | 96 | 1011.3 |
| 20260506201724 | 65 | 277 | 0.0 | 4.0 | 0.16 | 1.55 | 1.55 | 96 | 1011.3 |
| 20260506201612 | 65 | 239 | 0.0 | 4.0 | 0.13 | 1.51 | 1.51 | 96 | 1011.2 |
| 20260506201524 | 65 | 186 | 0.0 | 4.0 | 0.10 | 1.48 | 1.48 | 96 | 1011.2 |
| 20260506201411 | 65 | 176 | 0.0 | 4.0 | 0.08 | 1.46 | 1.46 | 96 | 1011.3 |
| 20260506201317 | 65 | 115 | 0.0 | 4.0 | 0.07 | 1.45 | 1.45 | 96 | 1011.1 |
| 20260506201225 | 65 | 115 | 0.0 | 4.0 | 0.07 | 1.45 | 1.45 | 96 | 1011.1 |
| 20260506201132 | 65 | 115 | 1.0 | 4.0 | 0.06 | 1.44 | 1.44 | 96 | 1010.7 |
| 20260506201039 | 65 | 115 | 2.0 | 4.0 | 0.07 | 1.44 | 1.44 | 96 | 1010.6 |
| 20260506200929 | 65 | 113 | 2.0 | 4.0 | 0.07 | 1.44 | 1.44 | 96 | 1010.6 |
| 20260506200817 | 65 | 134 | 2.0 | 3.0 | 0.07 | 1.44 | 1.44 | 96 | 1010.5 |
| 20260506200724 | 65 | 94 | 1.0 | 3.0 | 0.06 | 1.43 | 1.43 | 96 | 1010.5 |
| 20260506200653 | 65 | 73 | 1.0 | 2.0 | 0.06 | 1.42 | 1.42 | 96 | 1010.6 |
| 20260506200602 | 65 | 49 | 0.0 | 2.0 | 0.06 | 1.42 | 1.42 | 96 | 1010.6 |
| 20260506200320 | 65 | 49 | 1.0 | 2.0 | 0.07 | 1.42 | 1.42 | 96 | 1010.8 |
| 20260506200247 | 65 | 49 | 1.0 | 3.0 | 0.07 | 1.42 | 1.42 | 96 | 1010.8 |
| 20260506200133 | 65 | 49 | 1.0 | 3.0 | 0.08 | 1.42 | 1.42 | 96 | 1011.0 |
| 20260506200020 | 65 | 49 | 1.0 | 3.0 | 0.08 | 1.42 | 1.42 | 96 | 1011.0 |
| 20260506195928 | 65 | 49 | 1.0 | 3.0 | 0.09 | 1.42 | 1.42 | 96 | 1011.0 |
| 20260506195835 | 65 | 12 | 1.0 | 3.0 | 0.09 | 1.42 | 1.42 | 96 | 1011.1 |
| 20260506195722 | 65 | 355 | 1.0 | 3.0 | 0.09 | 1.42 | 1.42 | 96 | 1011.1 |
| 20260506195614 | 65 | 355 | 1.0 | 3.0 | 0.09 | 1.42 | 1.42 | 96 | 1011.2 |